Time,TemperatureF,DewpointF,PressureIn,WindDirection,WindDirectionDegrees,WindSpeedMPH,WindSpeedGustMPH,Humidity,HourlyPrecipIn,Conditions,Clouds,dailyrainin,SoftwareType,DateUTC
2013-05-07 00:00:00,56.5,45.6,29.86,North,0,0.0,0.9,67,0.00,,,0.00,WUHU216HW,2013-05-07 07:00:00,
2013-05-07 00:01:00,56.5,45.6,29.86,North,0,0.0,0.9,67,0.00,,,0.00,WUHU216HW,2013-05-07 07:01:00,
2013-05-07 00:03:00,56.3,45.9,29.86,North,0,0.0,0.4,68,0.00,,,0.00,WUHU216HW,2013-05-07 07:03:00,
2013-05-07 00:04:00,56.2,45.7,29.86,North,0,0.0,0.0,68,0.00,,,0.00,WUHU216HW,2013-05-07 07:04:00,
2013-05-07 00:05:00,56.2,45.4,29.86,North,0,0.0,0.0,67,0.00,,,0.00,WUHU216HW,2013-05-07 07:05:00,
2013-05-07 00:06:00,56.2,45.7,29.86,North,0,1.1,1.1,68,0.00,,,0.00,WUHU216HW,2013-05-07 07:06:00,
2013-05-07 00:08:00,56.0,45.2,29.86,NNE,23,0.4,1.1,67,0.00,,,0.00,WUHU216HW,2013-05-07 07:08:00,
2013-05-07 00:09:00,56.0,45.2,29.86,NNE,23,0.0,1.1,67,0.00,,,0.00,WUHU216HW,2013-05-07 07:09:00,
2013-05-07 00:10:00,55.8,45.0,29.86,NE,45,0.4,1.1,67,0.00,,,0.00,WUHU216HW,2013-05-07 07:10:00,
2013-05-07 00:11:00,55.8,45.0,29.86,NE,45,0.0,1.1,67,0.00,,,0.00,WUHU216HW,2013-05-07 07:11:00,
2013-05-07 00:13:00,55.8,45.4,29.86,NE,45,0.0,1.1,68,0.00,,,0.00,WUHU216HW,2013-05-07 07:13:00,
2013-05-07 00:14:00,55.6,45.3,29.86,NE,45,0.0,1.1,68,0.00,,,0.00,WUHU216HW,2013-05-07 07:14:00,
2013-05-07 00:15:00,55.6,45.3,29.86,SSE,158,0.0,1.1,68,0.00,,,0.00,WUHU216HW,2013-05-07 07:15:00,
2013-05-07 00:16:00,55.6,46.5,29.86,SSW,203,0.0,1.1,71,0.00,,,0.00,WUHU216HW,2013-05-07 07:16:00,
2013-05-07 00:17:00,55.6,46.5,29.86,SSW,203,0.0,0.4,71,0.00,,,0.00,WUHU216HW,2013-05-07 07:17:00,
2013-05-07 00:18:00,55.6,45.6,29.86,WNW,293,0.4,0.4,69,0.00,,,0.00,WUHU216HW,2013-05-07 07:18:00,
2013-05-07 00:19:00,55.6,45.6,29.86,NW,315,0.4,0.4,69,0.00,,,0.00,WUHU216HW,2013-05-07 07:19:00,
2013-05-07 00:20:00,55.6,45.6,29.86,North,0,0.4,0.4,69,0.00,,,0.00,WUHU216HW,2013-05-07 07:20:00,
2013-05-07 00:21:00,55.4,45.5,29.86,North,0,0.4,0.4,69,0.00,,,0.00,WUHU216HW,2013-05-07 07:21:00,
2013-05-07 00:22:00,55.4,45.5,29.86,North,0,0.4,0.4,69,0.00,,,0.00,WUHU216HW,2013-05-07 07:22:00,
2013-05-07 00:23:00,55.4,45.5,29.86,NW,315,0.2,0.4,69,0.00,,,0.00,WUHU216HW,2013-05-07 07:23:00,
2013-05-07 00:25:00,55.4,45.5,29.87,NNW,338,0.0,0.4,69,0.00,,,0.00,WUHU216HW,2013-05-07 07:25:00,
2013-05-07 00:27:00,55.3,45.3,29.87,NNW,338,0.0,0.4,69,0.00,,,0.00,WUHU216HW,2013-05-07 07:27:00,
2013-05-07 00:28:00,55.3,45.3,29.87,NNW,338,0.0,0.4,69,0.00,,,0.00,WUHU216HW,2013-05-07 07:28:00,
2013-05-07 00:30:00,55.1,45.9,29.87,NNW,338,0.0,0.4,71,0.00,,,0.00,WUHU216HW,2013-05-07 07:30:00,
2013-05-07 00:32:00,55.1,45.9,29.87,North,0,0.0,0.2,71,0.00,,,0.00,WUHU216HW,2013-05-07 07:32:00,
2013-05-07 00:34:00,55.1,45.9,29.87,North,0,0.0,0.0,71,0.00,,,0.00,WUHU216HW,2013-05-07 07:34:00,
2013-05-07 00:35:00,55.1,45.9,29.87,North,0,0.0,0.0,71,0.00,,,0.00,WUHU216HW,2013-05-07 07:35:00,
2013-05-07 00:37:00,55.1,45.9,29.87,North,0,0.0,0.0,71,0.00,,,0.00,WUHU216HW,2013-05-07 07:37:00,
2013-05-07 00:38:00,54.9,45.4,29.87,North,0,0.0,0.0,70,0.00,,,0.00,WUHU216HW,2013-05-07 07:38:00,
2013-05-07 00:39:00,54.9,45.4,29.87,North,0,0.0,0.0,70,0.00,,,0.00,WUHU216HW,2013-05-07 07:39:00,
2013-05-07 00:40:00,54.9,45.7,29.87,North,0,0.0,0.0,71,0.00,,,0.00,WUHU216HW,2013-05-07 07:40:00,
2013-05-07 00:42:00,54.9,45.7,29.87,WSW,248,0.0,0.0,71,0.00,,,0.00,WUHU216HW,2013-05-07 07:42:00,
2013-05-07 00:44:00,54.7,45.9,29.87,WSW,248,0.0,0.0,72,0.00,,,0.00,WUHU216HW,2013-05-07 07:44:00,
2013-05-07 00:45:00,54.7,45.9,29.87,WSW,248,0.0,0.0,72,0.00,,,0.00,WUHU216HW,2013-05-07 07:45:00,
2013-05-07 00:48:00,54.7,45.9,29.87,WSW,248,0.0,0.0,72,0.00,,,0.00,WUHU216HW,2013-05-07 07:48:00,
2013-05-07 00:49:00,54.9,46.1,29.87,ESE,113,0.9,0.9,72,0.00,,,0.00,WUHU216HW,2013-05-07 07:49:00,
2013-05-07 00:50:00,54.9,46.1,29.87,ESE,113,0.9,0.9,72,0.00,,,0.00,WUHU216HW,2013-05-07 07:50:00,
2013-05-07 00:53:00,54.9,46.1,29.87,ESE,113,0.0,0.9,72,0.00,,,0.00,WUHU216HW,2013-05-07 07:53:00,
2013-05-07 00:54:00,54.9,46.1,29.87,East,90,0.0,0.9,72,0.00,,,0.00,WUHU216HW,2013-05-07 07:54:00,
2013-05-07 00:55:00,54.9,46.1,29.87,East,90,0.0,0.9,72,0.00,,,0.00,WUHU216HW,2013-05-07 07:55:00,
2013-05-07 00:58:00,54.9,45.7,29.88,East,90,0.4,0.9,71,0.00,,,0.00,WUHU216HW,2013-05-07 07:58:00,
2013-05-07 00:59:00,54.9,45.7,29.87,East,90,0.4,0.4,71,0.00,,,0.00,WUHU216HW,2013-05-07 07:59:00,
2013-05-07 01:00:00,54.9,45.7,29.88,ESE,113,0.9,0.9,71,0.00,,,0.00,WUHU216HW,2013-05-07 08:00:00,
2013-05-07 01:01:00,54.9,45.7,29.88,ESE,113,0.9,0.9,71,0.00,,,0.00,WUHU216HW,2013-05-07 08:01:00,
2013-05-07 01:03:00,54.7,45.6,29.88,SE,135,0.0,0.9,71,0.00,,,0.00,WUHU216HW,2013-05-07 08:03:00,
2013-05-07 01:04:00,54.7,45.6,29.88,SE,135,0.0,0.9,71,0.00,,,0.00,WUHU216HW,2013-05-07 08:04:00,
2013-05-07 01:05:00,54.7,45.6,29.88,SE,135,0.0,0.9,71,0.00,,,0.00,WUHU216HW,2013-05-07 08:05:00,
2013-05-07 01:06:00,54.7,45.6,29.88,SE,135,0.0,0.9,71,0.00,,,0.00,WUHU216HW,2013-05-07 08:06:00,
2013-05-07 01:08:00,54.7,45.9,29.88,ESE,113,0.0,0.9,72,0.00,,,0.00,WUHU216HW,2013-05-07 08:08:00,
2013-05-07 01:09:00,54.7,45.9,29.88,ESE,113,0.0,0.9,72,0.00,,,0.00,WUHU216HW,2013-05-07 08:09:00,
2013-05-07 01:10:00,54.7,45.9,29.88,ESE,113,0.0,0.2,72,0.00,,,0.00,WUHU216HW,2013-05-07 08:10:00,
2013-05-07 01:11:00,54.5,45.7,29.88,ESE,113,0.0,0.0,72,0.00,,,0.00,WUHU216HW,2013-05-07 08:11:00,
2013-05-07 01:13:00,54.4,45.2,29.88,SE,135,0.0,0.0,71,0.00,,,0.00,WUHU216HW,2013-05-07 08:13:00,
2013-05-07 01:14:00,54.4,45.2,29.88,SE,135,0.0,0.0,71,0.00,,,0.00,WUHU216HW,2013-05-07 08:14:00,
2013-05-07 01:16:00,54.4,45.6,29.88,ESE,113,0.0,0.0,72,0.00,,,0.00,WUHU216HW,2013-05-07 08:16:00,
2013-05-07 01:18:00,54.2,45.7,29.88,East,90,0.4,1.1,73,0.00,,,0.00,WUHU216HW,2013-05-07 08:18:00,
2013-05-07 01:20:00,54.2,45.7,29.88,ESE,113,1.1,1.1,73,0.00,,,0.00,WUHU216HW,2013-05-07 08:20:00,
2013-05-07 01:21:00,54.2,45.7,29.88,East,90,1.1,1.1,73,0.00,,,0.00,WUHU216HW,2013-05-07 08:21:00,
2013-05-07 01:23:00,54.4,45.9,29.88,ESE,113,0.0,1.1,73,0.00,,,0.00,WUHU216HW,2013-05-07 08:23:00,
2013-05-07 01:25:00,54.4,46.3,29.89,East,90,0.9,1.1,74,0.00,,,0.00,WUHU216HW,2013-05-07 08:25:00,
2013-05-07 01:26:00,54.4,46.3,29.89,ENE,68,0.9,1.1,74,0.00,,,0.00,WUHU216HW,2013-05-07 08:26:00,
2013-05-07 01:27:00,54.4,46.3,29.89,ENE,68,0.9,1.1,74,0.00,,,0.00,WUHU216HW,2013-05-07 08:27:00,
2013-05-07 01:28:00,54.4,46.3,29.89,ENE,68,0.4,1.1,74,0.00,,,0.00,WUHU216HW,2013-05-07 08:28:00,
2013-05-07 01:30:00,54.2,45.7,29.89,East,90,0.0,1.1,73,0.00,,,0.00,WUHU216HW,2013-05-07 08:30:00,
2013-05-07 01:31:00,54.2,45.7,29.89,East,90,0.0,1.1,73,0.00,,,0.00,WUHU216HW,2013-05-07 08:31:00,
2013-05-07 01:32:00,54.2,45.7,29.88,ENE,68,0.9,1.1,73,0.00,,,0.00,WUHU216HW,2013-05-07 08:32:00,
2013-05-07 01:34:00,54.2,45.7,29.89,ENE,68,0.2,1.1,73,0.00,,,0.00,WUHU216HW,2013-05-07 08:34:00,
2013-05-07 01:35:00,54.2,45.7,29.88,ENE,68,0.0,1.1,73,0.00,,,0.00,WUHU216HW,2013-05-07 08:35:00,
2013-05-07 01:36:00,54.2,45.7,29.89,ENE,68,0.7,1.1,73,0.00,,,0.00,WUHU216HW,2013-05-07 08:36:00,
2013-05-07 01:37:00,54.2,45.7,29.89,ENE,68,0.7,1.1,73,0.00,,,0.00,WUHU216HW,2013-05-07 08:37:00,
2013-05-07 01:39:00,54.0,45.6,29.89,East,90,0.9,1.1,73,0.00,,,0.00,WUHU216HW,2013-05-07 08:39:00,
2013-05-07 01:41:00,54.2,46.1,29.89,East,90,1.1,1.1,74,0.00,,,0.00,WUHU216HW,2013-05-07 08:41:00,
2013-05-07 01:42:00,54.2,46.1,29.89,East,90,1.3,1.3,74,0.00,,,0.00,WUHU216HW,2013-05-07 08:42:00,
2013-05-07 01:43:00,54.2,46.1,29.89,East,90,1.3,1.3,74,0.00,,,0.00,WUHU216HW,2013-05-07 08:43:00,
2013-05-07 01:44:00,54.2,45.7,29.89,ENE,68,0.9,1.3,73,0.00,,,0.00,WUHU216HW,2013-05-07 08:44:00,
2013-05-07 01:46:00,54.2,45.7,29.89,ENE,68,0.0,1.3,73,0.00,,,0.00,WUHU216HW,2013-05-07 08:46:00,
2013-05-07 01:47:00,54.2,45.7,29.89,ENE,68,1.1,1.3,73,0.00,,,0.00,WUHU216HW,2013-05-07 08:47:00,
2013-05-07 01:48:00,54.2,45.7,29.89,East,90,1.1,1.3,73,0.00,,,0.00,WUHU216HW,2013-05-07 08:48:00,
2013-05-07 01:49:00,54.2,45.7,29.89,East,90,1.1,1.3,73,0.00,,,0.00,WUHU216HW,2013-05-07 08:49:00,
2013-05-07 01:51:00,54.2,45.7,29.89,East,90,0.4,1.3,73,0.00,,,0.00,WUHU216HW,2013-05-07 08:51:00,
2013-05-07 01:52:00,54.2,45.7,29.89,East,90,1.1,1.1,73,0.00,,,0.00,WUHU216HW,2013-05-07 08:52:00,
2013-05-07 01:53:00,54.2,45.7,29.89,East,90,1.3,1.3,73,0.00,,,0.00,WUHU216HW,2013-05-07 08:53:00,
2013-05-07 01:55:00,54.4,45.9,29.89,East,90,1.1,1.3,73,0.00,,,0.00,WUHU216HW,2013-05-07 08:55:00,
2013-05-07 01:56:00,54.4,46.3,29.89,ESE,113,0.7,1.3,74,0.00,,,0.00,WUHU216HW,2013-05-07 08:56:00,
2013-05-07 01:57:00,54.4,46.3,29.89,East,90,0.9,1.3,74,0.00,,,0.00,WUHU216HW,2013-05-07 08:57:00,
2013-05-07 01:59:00,54.4,46.3,29.89,East,90,0.9,1.3,74,0.00,,,0.00,WUHU216HW,2013-05-07 08:59:00,
2013-05-07 02:00:00,54.5,46.8,29.89,ENE,68,0.9,1.3,75,0.00,,,0.00,WUHU216HW,2013-05-07 09:00:00,
2013-05-07 02:02:00,54.7,47.3,29.89,East,90,1.1,1.3,76,0.00,,,0.00,WUHU216HW,2013-05-07 09:02:00,
2013-05-07 02:04:00,54.9,47.1,29.89,East,90,1.1,1.1,75,0.00,,,0.00,WUHU216HW,2013-05-07 09:04:00,
2013-05-07 02:05:00,55.1,47.6,29.89,East,90,1.1,1.1,76,0.00,,,0.00,WUHU216HW,2013-05-07 09:05:00,
2013-05-07 02:07:00,55.1,47.6,29.89,East,90,1.1,1.3,76,0.00,,,0.00,WUHU216HW,2013-05-07 09:07:00,
2013-05-07 02:09:00,55.3,47.8,29.89,East,90,1.1,1.3,76,0.00,,,0.00,WUHU216HW,2013-05-07 09:09:00,
2013-05-07 02:11:00,55.4,47.6,29.89,SE,135,0.4,1.3,75,0.00,,,0.00,WUHU216HW,2013-05-07 09:11:00,
2013-05-07 02:12:00,55.4,48.0,29.89,ESE,113,0.7,1.3,76,0.00,,,0.00,WUHU216HW,2013-05-07 09:12:00,
2013-05-07 02:13:00,55.4,48.0,29.89,ESE,113,0.7,1.3,76,0.00,,,0.00,WUHU216HW,2013-05-07 09:13:00,
2013-05-07 02:14:00,55.4,48.0,29.89,ESE,113,1.1,1.3,76,0.00,,,0.00,WUHU216HW,2013-05-07 09:14:00,
2013-05-07 02:16:00,55.4,48.0,29.89,East,90,1.1,1.3,76,0.00,,,0.00,WUHU216HW,2013-05-07 09:16:00,
2013-05-07 02:18:00,55.4,48.0,29.89,ENE,68,1.1,1.3,76,0.00,,,0.00,WUHU216HW,2013-05-07 09:18:00,
2013-05-07 02:19:00,55.4,47.6,29.89,ENE,68,1.1,1.3,75,0.00,,,0.00,WUHU216HW,2013-05-07 09:19:00,
2013-05-07 02:21:00,55.3,47.4,29.89,ENE,68,1.1,1.3,75,0.00,,,0.00,WUHU216HW,2013-05-07 09:21:00,
2013-05-07 02:23:00,55.3,47.8,29.89,East,90,0.7,1.3,76,0.00,,,0.00,WUHU216HW,2013-05-07 09:23:00,
2013-05-07 02:24:00,55.3,47.4,29.89,East,90,0.4,1.3,75,0.00,,,0.00,WUHU216HW,2013-05-07 09:24:00,
2013-05-07 02:26:00,55.1,47.3,29.89,East,90,1.1,1.1,75,0.00,,,0.00,WUHU216HW,2013-05-07 09:26:00,
2013-05-07 02:28:00,55.1,47.3,29.89,ENE,68,0.9,1.1,75,0.00,,,0.00,WUHU216HW,2013-05-07 09:28:00,
2013-05-07 02:30:00,55.1,47.6,29.89,East,90,1.6,1.6,76,0.00,,,0.00,WUHU216HW,2013-05-07 09:30:00,
2013-05-07 02:32:00,55.1,47.6,29.89,East,90,0.7,1.6,76,0.00,,,0.00,WUHU216HW,2013-05-07 09:32:00,
2013-05-07 02:33:00,55.1,47.6,29.89,East,90,1.1,1.6,76,0.00,,,0.00,WUHU216HW,2013-05-07 09:33:00,
2013-05-07 02:35:00,55.1,47.3,29.89,ESE,113,0.7,1.6,75,0.00,,,0.00,WUHU216HW,2013-05-07 09:35:00,
2013-05-07 02:37:00,55.1,47.6,29.89,East,90,0.4,1.6,76,0.00,,,0.00,WUHU216HW,2013-05-07 09:37:00,
2013-05-07 02:38:00,55.1,47.6,29.89,East,90,1.1,1.6,76,0.00,,,0.00,WUHU216HW,2013-05-07 09:38:00,
2013-05-07 02:39:00,55.1,47.6,29.89,East,90,1.1,1.6,76,0.00,,,0.00,WUHU216HW,2013-05-07 09:39:00,
2013-05-07 02:40:00,54.9,47.4,29.90,East,90,0.7,1.1,76,0.00,,,0.00,WUHU216HW,2013-05-07 09:40:00,
2013-05-07 02:42:00,54.9,47.4,29.90,East,90,0.0,1.1,76,0.00,,,0.00,WUHU216HW,2013-05-07 09:42:00,
2013-05-07 02:43:00,54.9,47.4,29.90,ENE,68,0.9,1.1,76,0.00,,,0.00,WUHU216HW,2013-05-07 09:43:00,
2013-05-07 02:44:00,54.9,47.4,29.90,ENE,68,0.9,1.1,76,0.00,,,0.00,WUHU216HW,2013-05-07 09:44:00,
2013-05-07 02:45:00,54.9,47.4,29.90,ENE,68,1.1,1.1,76,0.00,,,0.00,WUHU216HW,2013-05-07 09:45:00,
2013-05-07 02:48:00,54.7,47.3,29.90,SW,225,0.9,1.1,76,0.00,,,0.00,WUHU216HW,2013-05-07 09:48:00,
2013-05-07 02:49:00,54.7,47.3,29.90,SE,135,1.3,1.3,76,0.00,,,0.00,WUHU216HW,2013-05-07 09:49:00,
2013-05-07 02:50:00,54.7,47.6,29.90,ESE,113,0.4,1.3,77,0.00,,,0.00,WUHU216HW,2013-05-07 09:50:00,
2013-05-07 02:53:00,54.7,48.0,29.90,ENE,68,0.7,1.3,78,0.00,,,0.00,WUHU216HW,2013-05-07 09:53:00,
2013-05-07 02:54:00,54.7,48.0,29.90,East,90,1.1,1.3,78,0.00,,,0.00,WUHU216HW,2013-05-07 09:54:00,
2013-05-07 02:55:00,54.7,47.6,29.90,East,90,0.7,1.3,77,0.00,,,0.00,WUHU216HW,2013-05-07 09:55:00,
2013-05-07 02:58:00,54.7,47.6,29.91,East,90,0.9,1.6,77,0.00,,,0.00,WUHU216HW,2013-05-07 09:58:00,
2013-05-07 02:59:00,54.7,47.6,29.91,East,90,0.9,1.6,77,0.00,,,0.00,WUHU216HW,2013-05-07 09:59:00,
2013-05-07 03:00:00,54.5,47.4,29.91,East,90,0.9,1.6,77,0.00,,,0.00,WUHU216HW,2013-05-07 10:00:00,
2013-05-07 03:03:00,54.5,47.4,29.91,East,90,0.9,1.6,77,0.00,,,0.00,WUHU216HW,2013-05-07 10:03:00,
2013-05-07 03:04:00,54.5,47.4,29.91,East,90,0.9,1.6,77,0.00,,,0.00,WUHU216HW,2013-05-07 10:04:00,
2013-05-07 03:05:00,54.4,47.0,29.91,ENE,68,0.9,1.6,76,0.00,,,0.00,WUHU216HW,2013-05-07 10:05:00,
2013-05-07 03:08:00,54.4,47.0,29.91,East,90,0.2,0.9,76,0.00,,,0.00,WUHU216HW,2013-05-07 10:08:00,
2013-05-07 03:09:00,54.4,47.0,29.91,East,90,0.2,0.9,76,0.00,,,0.00,WUHU216HW,2013-05-07 10:09:00,
2013-05-07 03:10:00,54.4,47.0,29.91,ESE,113,0.4,0.9,76,0.00,,,0.00,WUHU216HW,2013-05-07 10:10:00,
2013-05-07 03:13:00,54.4,47.3,29.91,ENE,68,0.9,1.1,77,0.00,,,0.00,WUHU216HW,2013-05-07 10:13:00,
2013-05-07 03:14:00,54.2,47.2,29.91,ESE,113,0.7,1.1,77,0.00,,,0.00,WUHU216HW,2013-05-07 10:14:00,
2013-05-07 03:15:00,54.2,46.8,29.91,East,90,0.9,1.1,76,0.00,,,0.00,WUHU216HW,2013-05-07 10:15:00,
2013-05-07 03:19:00,54.2,46.8,29.91,ENE,68,0.9,1.1,76,0.00,,,0.00,WUHU216HW,2013-05-07 10:19:00,
2013-05-07 03:20:00,54.0,47.0,29.91,ESE,113,1.1,1.1,77,0.00,,,0.00,WUHU216HW,2013-05-07 10:20:00,
2013-05-07 03:24:00,53.8,46.8,29.91,ESE,113,1.1,1.1,77,0.00,,,0.00,WUHU216HW,2013-05-07 10:24:00,
2013-05-07 03:25:00,53.8,46.8,29.91,ESE,113,0.9,1.1,77,0.00,,,0.00,WUHU216HW,2013-05-07 10:25:00,
2013-05-07 03:26:00,53.8,46.8,29.91,ESE,113,0.0,1.1,77,0.00,,,0.00,WUHU216HW,2013-05-07 10:26:00,
2013-05-07 03:29:00,53.8,46.8,29.91,SE,135,0.4,1.1,77,0.00,,,0.00,WUHU216HW,2013-05-07 10:29:00,
2013-05-07 03:30:00,53.8,46.8,29.92,ESE,113,0.0,1.1,77,0.00,,,0.00,WUHU216HW,2013-05-07 10:30:00,
2013-05-07 03:31:00,53.8,46.8,29.92,ESE,113,0.0,1.1,77,0.00,,,0.00,WUHU216HW,2013-05-07 10:31:00,
2013-05-07 03:32:00,53.8,46.8,29.92,ESE,113,0.0,1.1,77,0.00,,,0.00,WUHU216HW,2013-05-07 10:32:00,
2013-05-07 03:34:00,53.6,47.0,29.92,ESE,113,0.0,0.9,78,0.00,,,0.00,WUHU216HW,2013-05-07 10:34:00,
2013-05-07 03:35:00,53.6,47.0,29.92,ESE,113,0.0,0.9,78,0.00,,,0.00,WUHU216HW,2013-05-07 10:35:00,
2013-05-07 03:37:00,53.6,47.3,29.92,South,180,2.5,2.5,79,0.00,,,0.00,WUHU216HW,2013-05-07 10:37:00,
2013-05-07 03:39:00,53.6,47.7,29.92,ESE,113,0.0,2.5,80,0.00,,,0.00,WUHU216HW,2013-05-07 10:39:00,
2013-05-07 03:40:00,53.6,47.7,29.92,ESE,113,0.0,2.5,80,0.00,,,0.00,WUHU216HW,2013-05-07 10:40:00,
2013-05-07 03:41:00,53.6,47.7,29.92,East,90,0.7,2.5,80,0.00,,,0.00,WUHU216HW,2013-05-07 10:41:00,
2013-05-07 03:42:00,53.6,47.7,29.92,East,90,0.7,2.5,80,0.00,,,0.00,WUHU216HW,2013-05-07 10:42:00,
2013-05-07 03:45:00,53.6,47.3,29.92,NE,45,0.0,2.5,79,0.00,,,0.00,WUHU216HW,2013-05-07 10:45:00,
2013-05-07 03:47:00,53.6,47.3,29.92,ENE,68,0.7,1.1,79,0.00,,,0.00,WUHU216HW,2013-05-07 10:47:00,
2013-05-07 03:48:00,53.5,47.5,29.92,SE,135,1.1,1.1,80,0.00,,,0.00,WUHU216HW,2013-05-07 10:48:00,
2013-05-07 03:50:00,53.3,47.0,29.92,ESE,113,0.0,1.1,79,0.00,,,0.00,WUHU216HW,2013-05-07 10:50:00,
2013-05-07 03:52:00,53.3,47.0,29.92,ESE,113,0.0,1.1,79,0.00,,,0.00,WUHU216HW,2013-05-07 10:52:00,
2013-05-07 03:53:00,53.3,47.0,29.92,ESE,113,0.0,1.1,79,0.00,,,0.00,WUHU216HW,2013-05-07 10:53:00,
2013-05-07 03:55:00,53.3,47.0,29.92,South,180,0.7,1.1,79,0.00,,,0.00,WUHU216HW,2013-05-07 10:55:00,
2013-05-07 03:57:00,53.1,47.2,29.92,South,180,0.2,0.7,80,0.00,,,0.00,WUHU216HW,2013-05-07 10:57:00,
2013-05-07 03:58:00,53.1,47.2,29.92,South,180,0.2,0.7,80,0.00,,,0.00,WUHU216HW,2013-05-07 10:58:00,
2013-05-07 04:00:00,53.1,47.4,29.93,East,90,0.0,0.7,81,0.00,,,0.00,WUHU216HW,2013-05-07 11:00:00,
2013-05-07 04:01:00,53.1,47.4,29.93,SSE,158,1.1,1.1,81,0.00,,,0.00,WUHU216HW,2013-05-07 11:01:00,
2013-05-07 04:03:00,53.1,47.8,29.93,South,180,1.1,2.5,82,0.00,,,0.00,WUHU216HW,2013-05-07 11:03:00,
2013-05-07 04:06:00,53.3,48.0,29.93,South,180,2.2,2.5,82,0.00,,,0.00,WUHU216HW,2013-05-07 11:06:00,
2013-05-07 04:08:00,53.3,48.2,29.93,SE,135,3.6,3.6,83,0.00,,,0.00,WUHU216HW,2013-05-07 11:08:00,
2013-05-07 04:11:00,53.5,48.4,29.93,SE,135,4.0,4.0,83,0.00,,,0.00,WUHU216HW,2013-05-07 11:11:00,
2013-05-07 04:13:00,53.5,48.4,29.93,ESE,113,2.5,4.0,83,0.00,,,0.00,WUHU216HW,2013-05-07 11:13:00,
2013-05-07 04:14:00,53.5,48.4,29.93,SSE,158,1.8,4.0,83,0.00,,,0.00,WUHU216HW,2013-05-07 11:14:00,
2013-05-07 04:16:00,53.5,48.4,29.93,ESE,113,1.1,4.0,83,0.00,,,0.00,WUHU216HW,2013-05-07 11:16:00,
2013-05-07 04:18:00,53.3,48.6,29.93,SSE,158,4.3,4.3,84,0.00,,,0.00,WUHU216HW,2013-05-07 11:18:00,
2013-05-07 04:19:00,53.3,48.2,29.94,South,180,1.1,4.3,83,0.00,,,0.00,WUHU216HW,2013-05-07 11:19:00,
2013-05-07 04:21:00,53.5,48.8,29.94,SSE,158,1.8,4.5,84,0.00,,,0.00,WUHU216HW,2013-05-07 11:21:00,
2013-05-07 04:23:00,53.5,48.8,29.94,SE,135,0.0,4.5,84,0.00,,,0.00,WUHU216HW,2013-05-07 11:23:00,
2013-05-07 04:24:00,53.5,49.1,29.94,East,90,3.1,4.5,85,0.00,,,0.00,WUHU216HW,2013-05-07 11:24:00,
2013-05-07 04:27:00,53.5,49.1,29.94,SE,135,4.9,4.9,85,0.00,,,0.00,WUHU216HW,2013-05-07 11:27:00,
2013-05-07 04:29:00,53.6,49.5,29.94,SSE,158,3.8,4.9,86,0.00,,,0.00,WUHU216HW,2013-05-07 11:29:00,
2013-05-07 04:32:00,53.6,49.5,29.94,South,180,3.4,4.9,86,0.00,,,0.00,WUHU216HW,2013-05-07 11:32:00,
2013-05-07 04:34:00,53.6,49.2,29.94,South,180,3.4,7.6,85,0.00,,,0.00,WUHU216HW,2013-05-07 11:34:00,
2013-05-07 04:37:00,53.6,49.5,29.94,SSE,158,3.6,7.6,86,0.00,,,0.00,WUHU216HW,2013-05-07 11:37:00,
2013-05-07 04:39:00,53.6,49.0,29.94,SE,135,1.6,7.6,84,0.00,,,0.00,WUHU216HW,2013-05-07 11:39:00,
2013-05-07 04:42:00,53.6,49.0,29.94,SE,135,2.2,7.6,84,0.00,,,0.00,WUHU216HW,2013-05-07 11:42:00,
2013-05-07 04:45:00,53.5,48.8,29.95,South,180,1.8,4.5,84,0.00,,,0.00,WUHU216HW,2013-05-07 11:45:00,
2013-05-07 04:47:00,53.3,48.9,29.95,SE,135,2.5,2.5,85,0.00,,,0.00,WUHU216HW,2013-05-07 11:47:00,
2013-05-07 04:50:00,53.3,48.9,29.95,ENE,68,2.5,2.5,85,0.00,,,0.00,WUHU216HW,2013-05-07 11:50:00,
2013-05-07 04:52:00,53.3,48.9,29.95,SSE,158,6.5,6.5,85,0.00,,,0.00,WUHU216HW,2013-05-07 11:52:00,
2013-05-07 04:55:00,53.1,49.0,29.95,SE,135,5.4,6.5,86,0.00,,,0.00,WUHU216HW,2013-05-07 11:55:00,
2013-05-07 04:57:00,53.1,49.0,29.95,ESE,113,2.9,6.5,86,0.00,,,0.00,WUHU216HW,2013-05-07 11:57:00,
2013-05-07 04:58:00,53.1,49.0,29.95,ESE,113,2.9,6.5,86,0.00,,,0.00,WUHU216HW,2013-05-07 11:58:00,
2013-05-07 05:00:00,52.9,48.8,29.95,SSE,158,1.6,6.5,86,0.00,,,0.00,WUHU216HW,2013-05-07 12:00:00,
2013-05-07 05:01:00,52.9,48.5,29.95,ESE,113,3.1,6.5,85,0.00,,,0.00,WUHU216HW,2013-05-07 12:01:00,
2013-05-07 05:03:00,52.9,48.5,29.95,ESE,113,1.1,5.4,85,0.00,,,0.00,WUHU216HW,2013-05-07 12:03:00,
2013-05-07 05:05:00,52.9,48.8,29.96,ESE,113,3.4,3.4,86,0.00,,,0.00,WUHU216HW,2013-05-07 12:05:00,
2013-05-07 05:06:00,52.9,48.5,29.96,East,90,1.3,3.4,85,0.00,,,0.00,WUHU216HW,2013-05-07 12:06:00,
2013-05-07 05:08:00,52.9,48.8,29.95,SSE,158,3.1,4.9,86,0.00,,,0.00,WUHU216HW,2013-05-07 12:08:00,
2013-05-07 05:10:00,52.9,48.8,29.96,ESE,113,1.3,4.9,86,0.00,,,0.00,WUHU216HW,2013-05-07 12:10:00,
2013-05-07 05:11:00,52.9,48.8,29.96,SE,135,2.5,4.9,86,0.00,,,0.00,WUHU216HW,2013-05-07 12:11:00,
2013-05-07 05:13:00,52.9,48.8,29.96,SE,135,2.7,4.9,86,0.00,,,0.00,WUHU216HW,2013-05-07 12:13:00,
2013-05-07 05:15:00,52.9,48.8,29.96,South,180,2.0,4.9,86,0.00,,,0.00,WUHU216HW,2013-05-07 12:15:00,
2013-05-07 05:16:00,52.7,48.3,29.96,SE,135,2.5,4.9,85,0.00,,,0.00,WUHU216HW,2013-05-07 12:16:00,
2013-05-07 05:18:00,52.7,48.6,29.96,NE,45,0.9,2.9,86,0.00,,,0.00,WUHU216HW,2013-05-07 12:18:00,
2013-05-07 05:20:00,52.7,48.6,29.96,WSW,248,2.7,2.9,86,0.00,,,0.00,WUHU216HW,2013-05-07 12:20:00,
2013-05-07 05:21:00,52.7,48.6,29.96,SSE,158,2.0,2.9,86,0.00,,,0.00,WUHU216HW,2013-05-07 12:21:00,
2013-05-07 05:22:00,52.7,48.6,29.96,SSE,158,0.9,2.9,86,0.00,,,0.00,WUHU216HW,2013-05-07 12:22:00,
2013-05-07 05:23:00,52.7,48.6,29.96,SSE,158,2.2,2.9,86,0.00,,,0.00,WUHU216HW,2013-05-07 12:23:00,
2013-05-07 05:25:00,52.7,48.6,29.96,SSE,158,3.1,3.1,86,0.00,,,0.00,WUHU216HW,2013-05-07 12:25:00,
2013-05-07 05:26:00,52.7,48.6,29.96,ESE,113,2.5,3.1,86,0.00,,,0.00,WUHU216HW,2013-05-07 12:26:00,
2013-05-07 05:27:00,52.7,48.6,29.96,ESE,113,4.0,4.0,86,0.00,,,0.00,WUHU216HW,2013-05-07 12:27:00,
2013-05-07 05:28:00,52.7,48.6,29.96,SE,135,3.4,4.0,86,0.00,,,0.00,WUHU216HW,2013-05-07 12:28:00,
2013-05-07 05:30:00,52.7,48.6,29.96,SE,135,2.5,4.0,86,0.00,,,0.00,WUHU216HW,2013-05-07 12:30:00,
2013-05-07 05:31:00,52.7,48.6,29.96,SE,135,3.6,4.0,86,0.00,,,0.00,WUHU216HW,2013-05-07 12:31:00,
2013-05-07 05:32:00,52.7,48.6,29.96,SE,135,1.1,4.0,86,0.00,,,0.00,WUHU216HW,2013-05-07 12:32:00,
2013-05-07 05:33:00,52.6,48.4,29.96,SE,135,4.0,4.0,86,0.00,,,0.00,WUHU216HW,2013-05-07 12:33:00,
2013-05-07 05:34:00,52.6,48.4,29.96,SE,135,4.0,4.0,86,0.00,,,0.00,WUHU216HW,2013-05-07 12:34:00,
2013-05-07 05:35:00,52.6,48.4,29.96,ESE,113,2.7,4.0,86,0.00,,,0.00,WUHU216HW,2013-05-07 12:35:00,
2013-05-07 05:37:00,52.6,48.4,29.96,ENE,68,1.8,4.7,86,0.00,,,0.00,WUHU216HW,2013-05-07 12:37:00,
2013-05-07 05:39:00,52.6,48.4,29.96,SE,135,4.7,4.7,86,0.00,,,0.00,WUHU216HW,2013-05-07 12:39:00,
2013-05-07 05:41:00,52.6,48.4,29.96,SSE,158,1.8,4.7,86,0.00,,,0.00,WUHU216HW,2013-05-07 12:41:00,
2013-05-07 05:42:00,52.6,48.4,29.96,SE,135,3.1,4.7,86,0.00,,,0.00,WUHU216HW,2013-05-07 12:42:00,
2013-05-07 05:43:00,52.6,48.4,29.96,SSE,158,2.5,4.7,86,0.00,,,0.00,WUHU216HW,2013-05-07 12:43:00,
2013-05-07 05:44:00,52.6,48.4,29.96,SE,135,3.8,4.7,86,0.00,,,0.00,WUHU216HW,2013-05-07 12:44:00,
2013-05-07 05:46:00,52.6,48.8,29.96,SSE,158,3.4,4.7,87,0.00,,,0.00,WUHU216HW,2013-05-07 12:46:00,
2013-05-07 05:47:00,52.6,48.8,29.96,ESE,113,2.0,4.7,87,0.00,,,0.00,WUHU216HW,2013-05-07 12:47:00,
2013-05-07 05:48:00,52.6,48.8,29.96,ESE,113,2.9,4.7,87,0.00,,,0.00,WUHU216HW,2013-05-07 12:48:00,
2013-05-07 05:49:00,52.6,48.8,29.96,ESE,113,2.9,4.7,87,0.00,,,0.00,WUHU216HW,2013-05-07 12:49:00,
2013-05-07 05:51:00,52.6,48.4,29.96,East,90,1.8,4.7,86,0.00,,,0.00,WUHU216HW,2013-05-07 12:51:00,
2013-05-07 05:52:00,52.6,48.4,29.96,SE,135,4.5,4.7,86,0.00,,,0.00,WUHU216HW,2013-05-07 12:52:00,
2013-05-07 05:53:00,52.6,48.4,29.96,SE,135,2.5,4.7,86,0.00,,,0.00,WUHU216HW,2013-05-07 12:53:00,
2013-05-07 05:54:00,52.6,48.4,29.96,SE,135,2.5,4.7,86,0.00,,,0.00,WUHU216HW,2013-05-07 12:54:00,
2013-05-07 05:56:00,52.7,49.0,29.97,SE,135,5.1,5.6,87,0.00,,,0.00,WUHU216HW,2013-05-07 12:56:00,
2013-05-07 05:57:00,52.7,49.0,29.97,South,180,3.4,5.6,87,0.00,,,0.00,WUHU216HW,2013-05-07 12:57:00,
2013-05-07 05:58:00,52.7,49.0,29.97,SE,135,6.9,6.9,87,0.00,,,0.00,WUHU216HW,2013-05-07 12:58:00,
2013-05-07 05:59:00,52.6,48.8,29.97,SSW,203,4.7,6.9,87,0.00,,,0.00,WUHU216HW,2013-05-07 12:59:00,
2013-05-07 06:01:00,52.7,49.0,29.97,SSE,158,6.5,9.8,87,0.00,,,0.00,WUHU216HW,2013-05-07 13:01:00,
2013-05-07 06:02:00,52.7,49.0,29.97,SSE,158,9.8,9.8,87,0.00,,,0.00,WUHU216HW,2013-05-07 13:02:00,
2013-05-07 06:03:00,52.7,49.0,29.97,SSE,158,7.6,9.8,87,0.00,,,0.00,WUHU216HW,2013-05-07 13:03:00,
2013-05-07 06:04:00,52.6,48.8,29.97,South,180,7.6,9.8,87,0.00,,,0.00,WUHU216HW,2013-05-07 13:04:00,
2013-05-07 06:06:00,52.6,48.8,29.97,South,180,9.2,9.8,87,0.00,,,0.00,WUHU216HW,2013-05-07 13:06:00,
2013-05-07 06:08:00,52.6,48.8,29.97,SE,135,5.8,9.8,87,0.00,,,0.00,WUHU216HW,2013-05-07 13:08:00,
2013-05-07 06:09:00,52.6,48.8,29.97,SSE,158,6.0,9.8,87,0.00,,,0.00,WUHU216HW,2013-05-07 13:09:00,
2013-05-07 06:10:00,52.6,48.8,29.97,SW,225,7.6,9.8,87,0.00,,,0.00,WUHU216HW,2013-05-07 13:10:00,
2013-05-07 06:11:00,52.6,48.8,29.97,SW,225,7.6,9.8,87,0.00,,,0.00,WUHU216HW,2013-05-07 13:11:00,
2013-05-07 06:13:00,52.6,48.8,29.97,SW,225,7.6,9.2,87,0.00,,,0.00,WUHU216HW,2013-05-07 13:13:00,
2013-05-07 06:14:00,52.6,48.8,29.97,SSE,158,11.4,11.4,87,0.00,,,0.00,WUHU216HW,2013-05-07 13:14:00,
2013-05-07 06:15:00,52.6,48.8,29.97,SSW,203,10.5,11.4,87,0.00,,,0.00,WUHU216HW,2013-05-07 13:15:00,
2013-05-07 06:16:00,52.6,48.8,29.97,SE,135,11.4,11.4,87,0.00,,,0.00,WUHU216HW,2013-05-07 13:16:00,
2013-05-07 06:18:00,52.6,48.8,29.97,SSE,158,9.6,11.4,87,0.00,,,0.00,WUHU216HW,2013-05-07 13:18:00,
2013-05-07 06:19:00,52.6,48.8,29.97,SE,135,7.6,11.4,87,0.00,,,0.00,WUHU216HW,2013-05-07 13:19:00,
2013-05-07 06:20:00,52.6,48.8,29.97,SSW,203,8.9,11.4,87,0.00,,,0.00,WUHU216HW,2013-05-07 13:20:00,
2013-05-07 06:21:00,52.6,48.8,29.97,SSE,158,9.2,11.4,87,0.00,,,0.00,WUHU216HW,2013-05-07 13:21:00,
2013-05-07 06:24:00,52.6,48.4,29.97,South,180,3.8,11.4,86,0.00,,,0.00,WUHU216HW,2013-05-07 13:24:00,
2013-05-07 06:25:00,52.6,48.8,29.97,South,180,6.5,11.4,87,0.00,,,0.00,WUHU216HW,2013-05-07 13:25:00,
2013-05-07 06:26:00,52.6,48.8,29.97,SSE,158,10.3,10.3,87,0.00,,,0.00,WUHU216HW,2013-05-07 13:26:00,
2013-05-07 06:29:00,52.6,48.8,29.97,SE,135,8.3,10.5,87,0.00,,,0.00,WUHU216HW,2013-05-07 13:29:00,
2013-05-07 06:30:00,52.6,48.8,29.97,SSE,158,11.0,11.0,87,0.00,,,0.00,WUHU216HW,2013-05-07 13:30:00,
2013-05-07 06:31:00,52.6,48.8,29.97,SSE,158,10.7,11.0,87,0.00,,,0.00,WUHU216HW,2013-05-07 13:31:00,
2013-05-07 06:34:00,52.6,48.8,29.97,SSW,203,8.5,11.0,87,0.00,,,0.00,WUHU216HW,2013-05-07 13:34:00,
2013-05-07 06:35:00,52.6,48.8,29.97,SSE,158,8.5,11.0,87,0.00,,,0.00,WUHU216HW,2013-05-07 13:35:00,
2013-05-07 06:36:00,52.6,48.8,29.98,South,180,9.8,11.0,87,0.00,,,0.00,WUHU216HW,2013-05-07 13:36:00,
2013-05-07 06:39:00,52.6,48.8,29.98,South,180,9.8,11.0,87,0.00,,,0.00,WUHU216HW,2013-05-07 13:39:00,
2013-05-07 06:40:00,52.4,48.6,29.98,SE,135,7.6,10.7,87,0.00,,,0.00,WUHU216HW,2013-05-07 13:40:00,
2013-05-07 06:41:00,52.4,48.6,29.98,SE,135,8.1,9.8,87,0.00,,,0.00,WUHU216HW,2013-05-07 13:41:00,
2013-05-07 06:44:00,52.4,48.6,29.98,SSE,158,8.7,9.8,87,0.00,,,0.00,WUHU216HW,2013-05-07 13:44:00,
2013-05-07 06:45:00,52.4,48.6,29.98,SE,135,6.7,9.8,87,0.00,,,0.00,WUHU216HW,2013-05-07 13:45:00,
2013-05-07 06:47:00,52.6,48.8,29.98,SSE,158,3.4,9.8,87,0.00,,,0.00,WUHU216HW,2013-05-07 13:47:00,
2013-05-07 06:49:00,52.6,48.8,29.98,SSW,203,6.0,8.7,87,0.00,,,0.00,WUHU216HW,2013-05-07 13:49:00,
2013-05-07 06:50:00,52.6,48.8,29.98,SSW,203,6.0,8.7,87,0.00,,,0.00,WUHU216HW,2013-05-07 13:50:00,
2013-05-07 06:52:00,52.6,48.8,29.98,SE,135,4.0,8.7,87,0.00,,,0.00,WUHU216HW,2013-05-07 13:52:00,
2013-05-07 06:54:00,52.6,48.8,29.98,SSE,158,5.1,6.7,87,0.00,,,0.00,WUHU216HW,2013-05-07 13:54:00,
2013-05-07 06:55:00,52.6,48.8,29.98,SSE,158,5.1,6.5,87,0.00,,,0.00,WUHU216HW,2013-05-07 13:55:00,
2013-05-07 06:56:00,52.6,48.8,29.98,South,180,5.4,6.5,87,0.00,,,0.00,WUHU216HW,2013-05-07 13:56:00,
2013-05-07 06:57:00,52.6,48.8,29.98,SSE,158,7.6,7.6,87,0.00,,,0.00,WUHU216HW,2013-05-07 13:57:00,
2013-05-07 07:00:00,52.6,48.8,29.98,East,90,3.1,7.6,87,0.00,,,0.00,WUHU216HW,2013-05-07 14:00:00,
2013-05-07 07:01:00,52.6,48.8,29.98,SE,135,2.0,7.6,87,0.00,,,0.00,WUHU216HW,2013-05-07 14:01:00,
2013-05-07 07:02:00,52.7,49.0,29.99,SE,135,3.6,7.6,87,0.00,,,0.00,WUHU216HW,2013-05-07 14:02:00,
2013-05-07 07:05:00,52.7,48.6,29.99,SSE,158,5.4,7.6,86,0.00,,,0.00,WUHU216HW,2013-05-07 14:05:00,
2013-05-07 07:06:00,52.7,48.6,29.99,SE,135,8.3,8.3,86,0.00,,,0.00,WUHU216HW,2013-05-07 14:06:00,
2013-05-07 07:08:00,52.7,48.6,29.99,SE,135,8.9,8.9,86,0.00,,,0.00,WUHU216HW,2013-05-07 14:08:00,
2013-05-07 07:10:00,52.7,48.6,29.99,SE,135,4.9,8.9,86,0.00,,,0.00,WUHU216HW,2013-05-07 14:10:00,
2013-05-07 07:11:00,52.7,48.6,29.99,South,180,5.4,8.9,86,0.00,,,0.00,WUHU216HW,2013-05-07 14:11:00,
2013-05-07 07:13:00,52.7,48.6,29.99,South,180,6.0,8.9,86,0.00,,,0.00,WUHU216HW,2013-05-07 14:13:00,
2013-05-07 07:15:00,52.7,48.6,29.99,ESE,113,2.5,8.9,86,0.00,,,0.00,WUHU216HW,2013-05-07 14:15:00,
2013-05-07 07:16:00,52.7,48.6,29.99,SE,135,2.0,8.9,86,0.00,,,0.00,WUHU216HW,2013-05-07 14:16:00,
2013-05-07 07:18:00,52.9,48.8,29.99,SE,135,2.5,6.9,86,0.00,,,0.00,WUHU216HW,2013-05-07 14:18:00,
2013-05-07 07:20:00,52.9,48.8,29.99,SSE,158,3.4,6.9,86,0.00,,,0.00,WUHU216HW,2013-05-07 14:20:00,
2013-05-07 07:21:00,52.9,48.8,29.99,ESE,113,1.3,6.9,86,0.00,,,0.00,WUHU216HW,2013-05-07 14:21:00,
2013-05-07 07:24:00,52.9,48.8,29.99,South,180,5.1,5.1,86,0.00,,,0.00,WUHU216HW,2013-05-07 14:24:00,
2013-05-07 07:26:00,52.9,48.8,29.99,SSE,158,6.9,9.4,86,0.00,,,0.00,WUHU216HW,2013-05-07 14:26:00,
2013-05-07 07:29:00,52.9,48.8,29.99,SSE,158,4.3,9.4,86,0.00,,,0.00,WUHU216HW,2013-05-07 14:29:00,
2013-05-07 07:31:00,52.9,48.8,29.99,SSE,158,4.3,9.4,86,0.00,,,0.00,WUHU216HW,2013-05-07 14:31:00,
2013-05-07 07:34:00,53.3,49.1,29.99,South,180,4.0,9.4,86,0.00,,,0.00,WUHU216HW,2013-05-07 14:34:00,
2013-05-07 07:36:00,53.3,49.1,29.99,SSE,158,6.3,6.3,86,0.00,,,0.00,WUHU216HW,2013-05-07 14:36:00,
2013-05-07 07:37:00,53.3,49.1,29.99,SSE,158,5.6,6.3,86,0.00,,,0.00,WUHU216HW,2013-05-07 14:37:00,
2013-05-07 07:39:00,53.3,49.1,29.99,ESE,113,2.0,6.3,86,0.00,,,0.00,WUHU216HW,2013-05-07 14:39:00,
2013-05-07 07:41:00,53.3,48.9,29.99,SSE,158,3.1,6.3,85,0.00,,,0.00,WUHU216HW,2013-05-07 14:41:00,
2013-05-07 07:42:00,53.5,49.1,29.99,SE,135,3.8,6.3,85,0.00,,,0.00,WUHU216HW,2013-05-07 14:42:00,
2013-05-07 07:43:00,53.5,49.1,29.99,SSE,158,4.7,6.3,85,0.00,,,0.00,WUHU216HW,2013-05-07 14:43:00,
2013-05-07 07:44:00,53.5,49.1,29.99,SE,135,4.9,6.3,85,0.00,,,0.00,WUHU216HW,2013-05-07 14:44:00,
2013-05-07 07:46:00,53.5,49.1,29.99,ESE,113,3.6,5.6,85,0.00,,,0.00,WUHU216HW,2013-05-07 14:46:00,
2013-05-07 07:47:00,53.5,49.1,29.99,ESE,113,3.6,5.6,85,0.00,,,0.00,WUHU216HW,2013-05-07 14:47:00,
2013-05-07 07:48:00,53.6,49.2,29.99,SE,135,4.0,4.9,85,0.00,,,0.00,WUHU216HW,2013-05-07 14:48:00,
2013-05-07 07:50:00,53.6,49.2,29.99,SE,135,3.4,4.9,85,0.00,,,0.00,WUHU216HW,2013-05-07 14:50:00,
2013-05-07 07:51:00,53.6,49.2,29.99,ESE,113,3.1,4.9,85,0.00,,,0.00,WUHU216HW,2013-05-07 14:51:00,
2013-05-07 07:52:00,53.6,49.2,29.99,SE,135,5.4,5.4,85,0.00,,,0.00,WUHU216HW,2013-05-07 14:52:00,
2013-05-07 07:53:00,53.6,49.2,29.99,SE,135,3.4,5.4,85,0.00,,,0.00,WUHU216HW,2013-05-07 14:53:00,
2013-05-07 07:55:00,53.6,49.2,29.99,ESE,113,5.8,5.8,85,0.00,,,0.00,WUHU216HW,2013-05-07 14:55:00,
2013-05-07 07:56:00,53.6,49.2,29.99,SSE,158,3.8,5.8,85,0.00,,,0.00,WUHU216HW,2013-05-07 14:56:00,
2013-05-07 07:57:00,53.6,49.2,29.99,ESE,113,6.5,6.5,85,0.00,,,0.00,WUHU216HW,2013-05-07 14:57:00,
2013-05-07 07:59:00,53.6,49.0,29.99,SE,135,3.8,6.5,84,0.00,,,0.00,WUHU216HW,2013-05-07 14:59:00,
2013-05-07 08:00:00,53.8,49.1,29.99,SSE,158,5.4,6.5,84,0.00,,,0.00,WUHU216HW,2013-05-07 15:00:00,
2013-05-07 08:01:00,53.6,49.0,29.99,SSE,158,9.6,9.6,84,0.00,,,0.00,WUHU216HW,2013-05-07 15:01:00,
2013-05-07 08:02:00,53.8,49.1,29.99,South,180,11.4,11.4,84,0.00,,,0.00,WUHU216HW,2013-05-07 15:02:00,
2013-05-07 08:04:00,53.8,49.1,29.99,SSW,203,4.7,11.4,84,0.00,,,0.00,WUHU216HW,2013-05-07 15:04:00,
2013-05-07 08:05:00,53.8,49.1,30.00,SSW,203,5.6,11.4,84,0.00,,,0.00,WUHU216HW,2013-05-07 15:05:00,
2013-05-07 08:07:00,53.8,49.1,30.00,SE,135,8.1,11.4,84,0.00,,,0.00,WUHU216HW,2013-05-07 15:07:00,
2013-05-07 08:08:00,53.8,49.1,29.99,SSE,158,4.0,11.4,84,0.00,,,0.00,WUHU216HW,2013-05-07 15:08:00,
2013-05-07 08:09:00,53.8,49.1,29.99,SSE,158,4.0,11.4,84,0.00,,,0.00,WUHU216HW,2013-05-07 15:09:00,
2013-05-07 08:11:00,53.8,49.1,30.00,SE,135,4.0,11.4,84,0.00,,,0.00,WUHU216HW,2013-05-07 15:11:00,
2013-05-07 08:12:00,53.8,49.1,30.00,SSE,158,4.7,8.1,84,0.00,,,0.00,WUHU216HW,2013-05-07 15:12:00,
2013-05-07 08:13:00,53.8,49.1,30.00,SSE,158,2.7,8.1,84,0.00,,,0.00,WUHU216HW,2013-05-07 15:13:00,
2013-05-07 08:14:00,53.8,49.1,30.00,South,180,3.1,8.1,84,0.00,,,0.00,WUHU216HW,2013-05-07 15:14:00,
2013-05-07 08:16:00,54.0,49.2,30.00,SE,135,2.5,8.1,84,0.00,,,0.00,WUHU216HW,2013-05-07 15:16:00,
2013-05-07 08:17:00,54.0,49.2,30.00,SE,135,3.4,5.4,84,0.00,,,0.00,WUHU216HW,2013-05-07 15:17:00,
2013-05-07 08:18:00,54.0,49.2,30.00,ESE,113,1.8,5.4,84,0.00,,,0.00,WUHU216HW,2013-05-07 15:18:00,
2013-05-07 08:19:00,54.0,49.2,30.00,ESE,113,2.9,5.4,84,0.00,,,0.00,WUHU216HW,2013-05-07 15:19:00,
2013-05-07 08:21:00,54.0,49.0,30.00,South,180,2.2,5.4,83,0.00,,,0.00,WUHU216HW,2013-05-07 15:21:00,
2013-05-07 08:23:00,54.2,49.2,30.00,SSE,158,3.1,5.4,83,0.00,,,0.00,WUHU216HW,2013-05-07 15:23:00,
2013-05-07 08:25:00,54.2,49.2,30.00,SSE,158,7.6,7.6,83,0.00,,,0.00,WUHU216HW,2013-05-07 15:25:00,
2013-05-07 08:26:00,54.0,49.0,30.00,SE,135,2.7,7.6,83,0.00,,,0.00,WUHU216HW,2013-05-07 15:26:00,
2013-05-07 08:28:00,54.0,49.0,30.00,SSE,158,6.0,7.6,83,0.00,,,0.00,WUHU216HW,2013-05-07 15:28:00,
2013-05-07 08:30:00,54.0,49.0,30.00,SSE,158,5.4,7.6,83,0.00,,,0.00,WUHU216HW,2013-05-07 15:30:00,
2013-05-07 08:31:00,54.0,49.0,30.00,WNW,293,1.3,7.6,83,0.00,,,0.00,WUHU216HW,2013-05-07 15:31:00,
2013-05-07 08:33:00,54.2,49.2,30.00,SE,135,3.8,7.6,83,0.00,,,0.00,WUHU216HW,2013-05-07 15:33:00,
2013-05-07 08:34:00,54.2,49.2,30.00,ESE,113,3.4,7.2,83,0.00,,,0.00,WUHU216HW,2013-05-07 15:34:00,
2013-05-07 08:35:00,54.2,48.8,30.00,South,180,1.3,7.2,82,0.00,,,0.00,WUHU216HW,2013-05-07 15:35:00,
2013-05-07 08:36:00,54.2,49.2,30.01,SE,135,2.2,7.2,83,0.00,,,0.00,WUHU216HW,2013-05-07 15:36:00,
2013-05-07 08:38:00,54.4,49.0,30.00,SE,135,2.7,7.2,82,0.00,,,0.00,WUHU216HW,2013-05-07 15:38:00,
2013-05-07 08:39:00,54.4,49.0,30.00,SE,135,3.4,7.2,82,0.00,,,0.00,WUHU216HW,2013-05-07 15:39:00,
2013-05-07 08:40:00,54.4,49.0,30.00,South,180,5.4,5.4,82,0.00,,,0.00,WUHU216HW,2013-05-07 15:40:00,
2013-05-07 08:42:00,54.5,49.1,30.01,SSE,158,5.6,6.0,82,0.00,,,0.00,WUHU216HW,2013-05-07 15:42:00,
2013-05-07 08:43:00,54.4,49.0,30.01,SE,135,4.0,6.0,82,0.00,,,0.00,WUHU216HW,2013-05-07 15:43:00,
2013-05-07 08:44:00,54.4,49.0,30.01,SE,135,4.0,6.0,82,0.00,,,0.00,WUHU216HW,2013-05-07 15:44:00,
2013-05-07 08:47:00,54.4,49.0,30.01,SE,135,4.0,6.0,82,0.00,,,0.00,WUHU216HW,2013-05-07 15:47:00,
2013-05-07 08:48:00,54.4,49.0,30.01,SE,135,6.7,6.7,82,0.00,,,0.00,WUHU216HW,2013-05-07 15:48:00,
2013-05-07 08:49:00,54.5,49.1,30.01,South,180,6.0,6.7,82,0.00,,,0.00,WUHU216HW,2013-05-07 15:49:00,
2013-05-07 08:50:00,54.5,49.1,30.01,SSE,158,8.3,8.3,82,0.00,,,0.00,WUHU216HW,2013-05-07 15:50:00,
2013-05-07 08:52:00,54.5,49.1,30.01,SE,135,6.0,8.3,82,0.00,,,0.00,WUHU216HW,2013-05-07 15:52:00,
2013-05-07 08:53:00,54.5,49.1,30.01,South,180,2.7,8.3,82,0.00,,,0.00,WUHU216HW,2013-05-07 15:53:00,
2013-05-07 08:54:00,54.5,49.1,30.01,South,180,1.8,8.3,82,0.00,,,0.00,WUHU216HW,2013-05-07 15:54:00,
2013-05-07 08:55:00,54.7,49.3,30.01,SSE,158,3.4,8.3,82,0.00,,,0.00,WUHU216HW,2013-05-07 15:55:00,
2013-05-07 08:57:00,54.7,49.3,30.01,SSE,158,6.0,8.3,82,0.00,,,0.00,WUHU216HW,2013-05-07 15:57:00,
2013-05-07 08:59:00,54.7,49.3,30.01,SSE,158,4.0,8.3,82,0.00,,,0.00,WUHU216HW,2013-05-07 15:59:00,
2013-05-07 09:00:00,54.7,49.3,30.01,South,180,5.4,7.6,82,0.00,,,0.00,WUHU216HW,2013-05-07 16:00:00,
2013-05-07 09:02:00,54.7,49.3,30.01,SSE,158,4.3,6.9,82,0.00,,,0.00,WUHU216HW,2013-05-07 16:02:00,
2013-05-07 09:04:00,54.9,49.5,30.01,SSE,158,2.7,6.9,82,0.00,,,0.00,WUHU216HW,2013-05-07 16:04:00,
2013-05-07 09:05:00,54.9,49.5,30.01,ESE,113,2.7,6.9,82,0.00,,,0.00,WUHU216HW,2013-05-07 16:05:00,
2013-05-07 09:07:00,54.9,49.5,30.01,South,180,6.3,6.3,82,0.00,,,0.00,WUHU216HW,2013-05-07 16:07:00,
2013-05-07 09:08:00,55.1,49.3,30.01,SSW,203,6.7,6.7,81,0.00,,,0.00,WUHU216HW,2013-05-07 16:08:00,
2013-05-07 09:09:00,55.1,49.7,30.01,SSE,158,8.9,8.9,82,0.00,,,0.00,WUHU216HW,2013-05-07 16:09:00,
2013-05-07 09:10:00,54.9,49.5,30.01,South,180,7.6,8.9,82,0.00,,,0.00,WUHU216HW,2013-05-07 16:10:00,
2013-05-07 09:11:00,55.1,49.7,30.01,SSE,158,6.0,8.9,82,0.00,,,0.00,WUHU216HW,2013-05-07 16:11:00,
2013-05-07 09:13:00,55.1,49.3,30.01,South,180,4.5,8.9,81,0.00,,,0.00,WUHU216HW,2013-05-07 16:13:00,
2013-05-07 09:14:00,55.1,49.7,30.01,SSE,158,4.7,8.9,82,0.00,,,0.00,WUHU216HW,2013-05-07 16:14:00,
2013-05-07 09:15:00,55.1,49.7,30.01,SE,135,3.8,8.9,82,0.00,,,0.00,WUHU216HW,2013-05-07 16:15:00,
2013-05-07 09:16:00,55.1,49.7,30.01,South,180,3.6,8.9,82,0.00,,,0.00,WUHU216HW,2013-05-07 16:16:00,
2013-05-07 09:18:00,55.3,49.8,30.01,South,180,8.7,8.9,82,0.00,,,0.00,WUHU216HW,2013-05-07 16:18:00,
2013-05-07 09:19:00,55.3,49.8,30.01,SSE,158,5.1,8.7,82,0.00,,,0.00,WUHU216HW,2013-05-07 16:19:00,
2013-05-07 09:21:00,55.3,49.5,30.01,SSE,158,2.0,8.7,81,0.00,,,0.00,WUHU216HW,2013-05-07 16:21:00,
2013-05-07 09:22:00,55.3,49.5,30.01,SSE,158,2.0,8.7,81,0.00,,,0.00,WUHU216HW,2013-05-07 16:22:00,
2013-05-07 09:23:00,55.4,49.7,30.01,SW,225,7.6,8.7,81,0.00,,,0.00,WUHU216HW,2013-05-07 16:23:00,
2013-05-07 09:24:00,55.4,49.7,30.01,SE,135,7.2,8.7,81,0.00,,,0.00,WUHU216HW,2013-05-07 16:24:00,
2013-05-07 09:26:00,55.4,49.3,30.01,SSE,158,3.8,8.7,80,0.00,,,0.00,WUHU216HW,2013-05-07 16:26:00,
2013-05-07 09:27:00,55.4,49.3,30.01,SSE,158,3.8,8.7,80,0.00,,,0.00,WUHU216HW,2013-05-07 16:27:00,
2013-05-07 09:28:00,55.4,49.7,30.01,SSE,158,8.3,8.7,81,0.00,,,0.00,WUHU216HW,2013-05-07 16:28:00,
2013-05-07 09:30:00,55.4,49.7,30.01,SE,135,2.7,8.7,81,0.00,,,0.00,WUHU216HW,2013-05-07 16:30:00,
2013-05-07 09:32:00,55.6,49.9,30.01,SSE,158,2.5,8.7,81,0.00,,,0.00,WUHU216HW,2013-05-07 16:32:00,
2013-05-07 09:33:00,55.6,49.9,30.01,ESE,113,2.0,8.7,81,0.00,,,0.00,WUHU216HW,2013-05-07 16:33:00,
2013-05-07 09:35:00,55.8,50.1,30.01,SSE,158,2.9,8.7,81,0.00,,,0.00,WUHU216HW,2013-05-07 16:35:00,
2013-05-07 09:37:00,55.8,50.1,30.01,SSE,158,1.8,8.7,81,0.00,,,0.00,WUHU216HW,2013-05-07 16:37:00,
2013-05-07 09:38:00,56.0,50.2,30.01,SSE,158,2.0,3.4,81,0.00,,,0.00,WUHU216HW,2013-05-07 16:38:00,
2013-05-07 09:39:00,56.0,50.2,30.01,SE,135,3.8,3.8,81,0.00,,,0.00,WUHU216HW,2013-05-07 16:39:00,
2013-05-07 09:41:00,56.2,50.4,30.01,South,180,3.6,3.8,81,0.00,,,0.00,WUHU216HW,2013-05-07 16:41:00,
2013-05-07 09:42:00,56.2,50.4,30.01,South,180,3.8,3.8,81,0.00,,,0.00,WUHU216HW,2013-05-07 16:42:00,
2013-05-07 09:43:00,56.2,50.4,30.01,SE,135,4.7,4.7,81,0.00,,,0.00,WUHU216HW,2013-05-07 16:43:00,
2013-05-07 09:44:00,56.3,50.6,30.01,SE,135,2.7,4.7,81,0.00,,,0.00,WUHU216HW,2013-05-07 16:44:00,
2013-05-07 09:46:00,56.2,50.4,30.01,SE,135,3.4,4.7,81,0.00,,,0.00,WUHU216HW,2013-05-07 16:46:00,
2013-05-07 09:47:00,56.3,50.2,30.01,South,180,3.8,4.7,80,0.00,,,0.00,WUHU216HW,2013-05-07 16:47:00,
2013-05-07 09:49:00,56.2,50.0,30.01,SE,135,2.5,4.7,80,0.00,,,0.00,WUHU216HW,2013-05-07 16:49:00,
2013-05-07 09:51:00,56.3,50.2,30.01,East,90,2.5,4.7,80,0.00,,,0.00,WUHU216HW,2013-05-07 16:51:00,
2013-05-07 09:52:00,56.3,50.2,30.01,East,90,2.9,4.7,80,0.00,,,0.00,WUHU216HW,2013-05-07 16:52:00,
2013-05-07 09:53:00,56.3,50.2,30.01,East,90,2.9,4.7,80,0.00,,,0.00,WUHU216HW,2013-05-07 16:53:00,
2013-05-07 09:54:00,56.3,49.9,30.01,SE,135,2.0,3.8,79,0.00,,,0.00,WUHU216HW,2013-05-07 16:54:00,
2013-05-07 09:56:00,56.3,49.9,30.01,SE,135,1.8,3.8,79,0.00,,,0.00,WUHU216HW,2013-05-07 16:56:00,
2013-05-07 09:57:00,56.5,50.0,30.01,East,90,2.2,3.6,79,0.00,,,0.00,WUHU216HW,2013-05-07 16:57:00,
2013-05-07 09:58:00,56.5,50.0,30.01,East,90,2.2,3.6,79,0.00,,,0.00,WUHU216HW,2013-05-07 16:58:00,
2013-05-07 09:59:00,56.7,50.2,30.01,SE,135,1.8,2.9,79,0.00,,,0.00,WUHU216HW,2013-05-07 16:59:00,
2013-05-07 10:01:00,56.9,50.4,30.01,SE,135,2.0,2.9,79,0.00,,,0.00,WUHU216HW,2013-05-07 17:01:00,
2013-05-07 10:02:00,56.9,50.4,30.01,SW,225,2.7,2.7,79,0.00,,,0.00,WUHU216HW,2013-05-07 17:02:00,
2013-05-07 10:03:00,57.1,50.6,30.01,SE,135,2.0,2.7,79,0.00,,,0.00,WUHU216HW,2013-05-07 17:03:00,
2013-05-07 10:04:00,57.1,50.6,30.01,SE,135,2.0,2.7,79,0.00,,,0.00,WUHU216HW,2013-05-07 17:04:00,
2013-05-07 10:06:00,57.2,50.8,30.01,East,90,2.0,2.7,79,0.00,,,0.00,WUHU216HW,2013-05-07 17:06:00,
2013-05-07 10:07:00,57.2,50.4,30.01,ESE,113,2.2,2.7,78,0.00,,,0.00,WUHU216HW,2013-05-07 17:07:00,
2013-05-07 10:08:00,57.4,50.6,30.01,ESE,113,1.8,2.7,78,0.00,,,0.00,WUHU216HW,2013-05-07 17:08:00,
2013-05-07 10:09:00,57.6,50.8,30.01,ESE,113,1.3,2.7,78,0.00,,,0.00,WUHU216HW,2013-05-07 17:09:00,
2013-05-07 10:11:00,57.6,50.8,30.01,SE,135,1.8,2.7,78,0.00,,,0.00,WUHU216HW,2013-05-07 17:11:00,
2013-05-07 10:12:00,57.6,50.8,30.01,SE,135,2.5,2.5,78,0.00,,,0.00,WUHU216HW,2013-05-07 17:12:00,
2013-05-07 10:13:00,57.6,50.4,30.01,ESE,113,2.0,2.5,77,0.00,,,0.00,WUHU216HW,2013-05-07 17:13:00,
2013-05-07 10:14:00,57.6,50.4,30.01,SSE,158,3.4,3.4,77,0.00,,,0.00,WUHU216HW,2013-05-07 17:14:00,
2013-05-07 10:15:00,57.6,50.4,30.01,SE,135,2.5,3.4,77,0.00,,,0.00,WUHU216HW,2013-05-07 17:15:00,
2013-05-07 10:17:00,57.6,50.4,30.01,East,90,1.8,3.4,77,0.00,,,0.00,WUHU216HW,2013-05-07 17:17:00,
2013-05-07 10:18:00,57.6,50.4,30.01,SE,135,2.9,3.4,77,0.00,,,0.00,WUHU216HW,2013-05-07 17:18:00,
2013-05-07 10:20:00,57.6,50.4,30.01,SE,135,2.0,3.4,77,0.00,,,0.00,WUHU216HW,2013-05-07 17:20:00,
2013-05-07 10:22:00,57.6,50.4,30.01,SE,135,2.0,3.4,77,0.00,,,0.00,WUHU216HW,2013-05-07 17:22:00,
2013-05-07 10:23:00,58.0,50.8,30.01,ESE,113,1.3,3.4,77,0.00,,,0.00,WUHU216HW,2013-05-07 17:23:00,
2013-05-07 10:24:00,58.0,50.8,30.01,ESE,113,1.3,3.4,77,0.00,,,0.00,WUHU216HW,2013-05-07 17:24:00,
2013-05-07 10:25:00,58.0,50.8,30.01,SSE,158,2.0,3.1,77,0.00,,,0.00,WUHU216HW,2013-05-07 17:25:00,
2013-05-07 10:26:00,58.1,50.9,30.01,South,180,1.1,3.1,77,0.00,,,0.00,WUHU216HW,2013-05-07 17:26:00,
2013-05-07 10:27:00,58.3,50.8,30.01,South,180,2.5,3.4,76,0.00,,,0.00,WUHU216HW,2013-05-07 17:27:00,
2013-05-07 10:28:00,58.5,50.9,30.01,SE,135,2.5,3.4,76,0.00,,,0.00,WUHU216HW,2013-05-07 17:28:00,
2013-05-07 10:29:00,58.5,50.9,30.01,SE,135,2.5,3.4,76,0.00,,,0.00,WUHU216HW,2013-05-07 17:29:00,
2013-05-07 10:30:00,58.5,50.9,30.01,SE,135,2.7,3.4,76,0.00,,,0.00,WUHU216HW,2013-05-07 17:30:00,
2013-05-07 10:31:00,58.5,50.9,30.01,East,90,1.1,3.4,76,0.00,,,0.00,WUHU216HW,2013-05-07 17:31:00,
2013-05-07 10:32:00,58.7,51.1,30.01,SE,135,2.5,3.4,76,0.00,,,0.00,WUHU216HW,2013-05-07 17:32:00,
2013-05-07 10:33:00,58.9,50.9,30.01,ESE,113,2.2,3.4,75,0.00,,,0.00,WUHU216HW,2013-05-07 17:33:00,
2013-05-07 10:34:00,58.9,50.9,30.01,ESE,113,2.2,3.4,75,0.00,,,0.00,WUHU216HW,2013-05-07 17:34:00,
2013-05-07 10:35:00,59.0,51.1,30.01,SSE,158,3.6,3.6,75,0.00,,,0.00,WUHU216HW,2013-05-07 17:35:00,
2013-05-07 10:36:00,59.0,50.8,30.01,SSE,158,2.5,3.6,74,0.00,,,0.00,WUHU216HW,2013-05-07 17:36:00,
2013-05-07 10:38:00,59.0,50.8,30.01,SSE,158,2.5,3.8,74,0.00,,,0.00,WUHU216HW,2013-05-07 17:38:00,
2013-05-07 10:39:00,59.2,50.9,30.01,SE,135,2.0,3.8,74,0.00,,,0.00,WUHU216HW,2013-05-07 17:39:00,
2013-05-07 10:40:00,59.2,50.9,30.01,SSE,158,1.1,3.8,74,0.00,,,0.00,WUHU216HW,2013-05-07 17:40:00,
2013-05-07 10:41:00,59.2,50.9,30.01,SSE,158,1.1,3.8,74,0.00,,,0.00,WUHU216HW,2013-05-07 17:41:00,
2013-05-07 10:43:00,59.4,51.1,30.01,SE,135,1.3,3.8,74,0.00,,,0.00,WUHU216HW,2013-05-07 17:43:00,
2013-05-07 10:44:00,59.4,51.1,30.01,SE,135,1.3,3.8,74,0.00,,,0.00,WUHU216HW,2013-05-07 17:44:00,
2013-05-07 10:45:00,59.4,50.8,30.01,ESE,113,2.5,3.8,73,0.00,,,0.00,WUHU216HW,2013-05-07 17:45:00,
2013-05-07 10:46:00,59.4,50.8,30.01,ESE,113,2.5,3.8,73,0.00,,,0.00,WUHU216HW,2013-05-07 17:46:00,
2013-05-07 10:48:00,59.8,51.1,30.01,SE,135,1.1,3.6,73,0.00,,,0.00,WUHU216HW,2013-05-07 17:48:00,
2013-05-07 10:49:00,59.8,51.1,30.01,SE,135,1.1,3.6,73,0.00,,,0.00,WUHU216HW,2013-05-07 17:49:00,
2013-05-07 10:50:00,59.9,51.3,30.01,SSE,158,3.4,3.6,73,0.00,,,0.00,WUHU216HW,2013-05-07 17:50:00,
2013-05-07 10:51:00,59.9,51.3,30.01,SSE,158,3.4,3.6,73,0.00,,,0.00,WUHU216HW,2013-05-07 17:51:00,
2013-05-07 10:53:00,60.1,51.5,30.01,SE,135,4.5,4.5,73,0.00,,,0.00,WUHU216HW,2013-05-07 17:53:00,
2013-05-07 10:54:00,60.1,51.5,30.01,SE,135,4.5,4.5,73,0.00,,,0.00,WUHU216HW,2013-05-07 17:54:00,
2013-05-07 10:55:00,60.1,51.1,30.01,SSE,158,1.8,4.5,72,0.00,,,0.00,WUHU216HW,2013-05-07 17:55:00,
2013-05-07 10:57:00,60.1,51.1,30.01,South,180,2.5,4.5,72,0.00,,,0.00,WUHU216HW,2013-05-07 17:57:00,
2013-05-07 10:59:00,60.3,51.3,30.01,SSE,158,2.0,4.5,72,0.00,,,0.00,WUHU216HW,2013-05-07 17:59:00,
2013-05-07 11:01:00,60.8,51.8,30.01,ENE,68,0.2,4.5,72,0.00,,,0.00,WUHU216HW,2013-05-07 18:01:00,
2013-05-07 11:02:00,60.8,51.8,30.01,East,90,2.5,4.5,72,0.00,,,0.00,WUHU216HW,2013-05-07 18:02:00,
2013-05-07 11:04:00,61.2,51.9,30.01,East,90,1.1,3.8,71,0.00,,,0.00,WUHU216HW,2013-05-07 18:04:00,
2013-05-07 11:05:00,61.2,51.9,30.01,East,90,1.1,3.8,71,0.00,,,0.00,WUHU216HW,2013-05-07 18:05:00,
2013-05-07 11:06:00,61.6,51.8,30.01,SE,135,1.6,3.8,70,0.00,,,0.00,WUHU216HW,2013-05-07 18:06:00,
2013-05-07 11:07:00,61.6,51.8,30.01,SSE,158,2.0,3.8,70,0.00,,,0.00,WUHU216HW,2013-05-07 18:07:00,
2013-05-07 11:09:00,62.1,52.3,30.01,SE,135,3.1,3.8,70,0.00,,,0.00,WUHU216HW,2013-05-07 18:09:00,
2013-05-07 11:10:00,62.1,52.3,30.01,SE,135,3.1,3.8,70,0.00,,,0.00,WUHU216HW,2013-05-07 18:10:00,
2013-05-07 11:11:00,62.3,52.0,30.01,SSE,158,2.5,4.0,69,0.00,,,0.00,WUHU216HW,2013-05-07 18:11:00,
2013-05-07 11:12:00,62.3,52.4,30.01,SE,135,2.0,4.0,70,0.00,,,0.00,WUHU216HW,2013-05-07 18:12:00,
2013-05-07 11:14:00,62.3,52.0,30.01,SE,135,2.5,4.0,69,0.00,,,0.00,WUHU216HW,2013-05-07 18:14:00,
2013-05-07 11:15:00,62.3,52.0,30.01,SE,135,2.5,4.0,69,0.00,,,0.00,WUHU216HW,2013-05-07 18:15:00,
2013-05-07 11:16:00,62.5,52.2,30.01,ESE,113,2.5,4.0,69,0.00,,,0.00,WUHU216HW,2013-05-07 18:16:00,
2013-05-07 11:17:00,62.5,52.2,30.01,ESE,113,3.1,4.0,69,0.00,,,0.00,WUHU216HW,2013-05-07 18:17:00,
2013-05-07 11:19:00,62.6,51.9,30.01,ESE,113,4.7,4.7,68,0.00,,,0.00,WUHU216HW,2013-05-07 18:19:00,
2013-05-07 11:20:00,62.5,51.8,30.01,WSW,248,2.2,4.7,68,0.00,,,0.00,WUHU216HW,2013-05-07 18:20:00,
2013-05-07 11:22:00,62.5,51.8,30.01,ENE,68,1.8,4.7,68,0.00,,,0.00,WUHU216HW,2013-05-07 18:22:00,
2013-05-07 11:23:00,62.6,52.3,30.01,East,90,3.4,4.7,69,0.00,,,0.00,WUHU216HW,2013-05-07 18:23:00,
2013-05-07 11:24:00,63.0,51.8,30.01,SSE,158,2.7,4.7,67,0.00,,,0.00,WUHU216HW,2013-05-07 18:24:00,
2013-05-07 11:25:00,63.2,52.0,30.01,SW,225,2.7,4.7,67,0.00,,,0.00,WUHU216HW,2013-05-07 18:25:00,
2013-05-07 11:27:00,63.4,52.7,30.01,SSE,158,2.0,4.7,68,0.00,,,0.00,WUHU216HW,2013-05-07 18:27:00,
2013-05-07 11:28:00,63.9,52.8,30.01,South,180,2.2,4.7,67,0.00,,,0.00,WUHU216HW,2013-05-07 18:28:00,
2013-05-07 11:29:00,64.1,52.5,30.01,SSE,158,1.8,4.0,66,0.00,,,0.00,WUHU216HW,2013-05-07 18:29:00,
2013-05-07 11:31:00,64.4,52.8,30.00,ESE,113,4.0,4.0,66,0.00,,,0.00,WUHU216HW,2013-05-07 18:31:00,
2013-05-07 11:32:00,64.6,52.6,30.00,SSE,158,2.0,4.0,65,0.00,,,0.00,WUHU216HW,2013-05-07 18:32:00,
2013-05-07 11:33:00,64.8,52.8,30.01,SE,135,2.0,4.0,65,0.00,,,0.00,WUHU216HW,2013-05-07 18:33:00,
2013-05-07 11:35:00,65.2,52.7,30.00,South,180,2.5,4.0,64,0.00,,,0.00,WUHU216HW,2013-05-07 18:35:00,
2013-05-07 11:36:00,65.2,52.7,30.00,South,180,2.5,4.0,64,0.00,,,0.00,WUHU216HW,2013-05-07 18:36:00,
2013-05-07 11:37:00,65.2,52.2,30.01,SSE,158,4.7,4.7,63,0.00,,,0.00,WUHU216HW,2013-05-07 18:37:00,
2013-05-07 11:38:00,65.3,52.4,30.01,South,180,3.6,4.7,63,0.00,,,0.00,WUHU216HW,2013-05-07 18:38:00,
2013-05-07 11:40:00,65.2,52.2,30.01,SE,135,3.4,4.7,63,0.00,,,0.00,WUHU216HW,2013-05-07 18:40:00,
2013-05-07 11:41:00,65.2,52.2,30.01,SE,135,3.4,4.7,63,0.00,,,0.00,WUHU216HW,2013-05-07 18:41:00,
2013-05-07 11:42:00,65.0,52.0,30.00,SSE,158,3.4,4.7,63,0.00,,,0.00,WUHU216HW,2013-05-07 18:42:00,
2013-05-07 11:43:00,65.0,52.0,30.00,SSE,158,3.4,4.7,63,0.00,,,0.00,WUHU216HW,2013-05-07 18:43:00,
2013-05-07 11:44:00,65.2,52.7,30.01,ESE,113,2.5,4.7,64,0.00,,,0.00,WUHU216HW,2013-05-07 18:44:00,
2013-05-07 11:45:00,65.2,52.7,30.01,SE,135,2.7,4.7,64,0.00,,,0.00,WUHU216HW,2013-05-07 18:45:00,
2013-05-07 11:46:00,65.2,52.7,30.01,SE,135,2.7,3.8,64,0.00,,,0.00,WUHU216HW,2013-05-07 18:46:00,
2013-05-07 11:47:00,65.7,52.8,30.00,South,180,1.8,3.6,63,0.00,,,0.00,WUHU216HW,2013-05-07 18:47:00,
2013-05-07 11:48:00,65.7,52.8,30.00,South,180,1.8,3.6,63,0.00,,,0.00,WUHU216HW,2013-05-07 18:48:00,
2013-05-07 11:49:00,66.2,53.3,30.01,SE,135,3.8,4.7,63,0.00,,,0.00,WUHU216HW,2013-05-07 18:49:00,
2013-05-07 11:51:00,66.4,53.0,30.01,South,180,2.9,4.7,62,0.00,,,0.00,WUHU216HW,2013-05-07 18:51:00,
2013-05-07 11:52:00,67.0,53.1,30.01,SE,135,2.2,4.7,61,0.00,,,0.00,WUHU216HW,2013-05-07 18:52:00,
2013-05-07 11:53:00,67.0,53.1,30.01,SE,135,2.2,4.7,61,0.00,,,0.00,WUHU216HW,2013-05-07 18:53:00,
2013-05-07 11:54:00,67.1,52.8,30.01,SE,135,4.7,4.7,60,0.00,,,0.00,WUHU216HW,2013-05-07 18:54:00,
2013-05-07 11:56:00,67.3,53.0,30.00,SE,135,2.9,4.7,60,0.00,,,0.00,WUHU216HW,2013-05-07 18:56:00,
2013-05-07 11:57:00,68.0,53.2,30.01,SE,135,2.5,4.7,59,0.00,,,0.00,WUHU216HW,2013-05-07 18:57:00,
2013-05-07 11:58:00,68.0,53.2,30.01,SE,135,2.5,4.7,59,0.00,,,0.00,WUHU216HW,2013-05-07 18:58:00,
2013-05-07 12:00:00,68.8,52.9,30.01,South,180,4.3,4.7,57,0.00,,,0.00,WUHU216HW,2013-05-07 19:00:00,
2013-05-07 12:01:00,68.8,52.4,30.01,SSE,158,4.0,4.7,56,0.00,,,0.00,WUHU216HW,2013-05-07 19:01:00,
2013-05-07 12:02:00,68.8,52.4,30.01,SSW,203,4.0,4.7,56,0.00,,,0.00,WUHU216HW,2013-05-07 19:02:00,
2013-05-07 12:03:00,68.6,52.2,30.01,SSE,158,6.3,6.3,56,0.00,,,0.00,WUHU216HW,2013-05-07 19:03:00,
2013-05-07 12:05:00,68.0,51.7,30.01,ESE,113,2.7,6.3,56,0.00,,,0.00,WUHU216HW,2013-05-07 19:05:00,
2013-05-07 12:06:00,68.0,52.2,30.01,SSE,158,4.9,6.3,57,0.00,,,0.00,WUHU216HW,2013-05-07 19:06:00,
2013-05-07 12:07:00,68.0,52.2,30.01,SSE,158,4.9,6.3,57,0.00,,,0.00,WUHU216HW,2013-05-07 19:07:00,
2013-05-07 12:08:00,68.0,52.7,30.01,SSE,158,2.5,6.3,58,0.00,,,0.00,WUHU216HW,2013-05-07 19:08:00,
2013-05-07 12:10:00,68.6,52.8,30.00,South,180,2.5,6.3,57,0.00,,,0.00,WUHU216HW,2013-05-07 19:10:00,
2013-05-07 12:11:00,68.8,52.9,30.00,SSW,203,3.1,6.3,57,0.00,,,0.00,WUHU216HW,2013-05-07 19:11:00,
2013-05-07 12:12:00,68.8,52.9,30.00,SSW,203,3.1,6.3,57,0.00,,,0.00,WUHU216HW,2013-05-07 19:12:00,
2013-05-07 12:13:00,69.3,53.4,30.00,SSW,203,1.1,4.9,57,0.00,,,0.00,WUHU216HW,2013-05-07 19:13:00,
2013-05-07 12:14:00,69.3,53.4,30.00,SSW,203,1.1,4.9,57,0.00,,,0.00,WUHU216HW,2013-05-07 19:14:00,
2013-05-07 12:15:00,69.3,53.4,30.00,SSW,203,1.1,4.9,57,0.00,,,0.00,WUHU216HW,2013-05-07 19:15:00,
2013-05-07 12:16:00,70.0,53.1,30.00,South,180,2.9,4.0,55,0.00,,,0.00,WUHU216HW,2013-05-07 19:16:00,
2013-05-07 12:17:00,70.0,53.1,30.00,South,180,2.9,4.0,55,0.00,,,0.00,WUHU216HW,2013-05-07 19:17:00,
2013-05-07 12:18:00,70.2,53.3,30.00,ESE,113,1.3,3.1,55,0.00,,,0.00,WUHU216HW,2013-05-07 19:18:00,
2013-05-07 12:19:00,70.2,53.3,30.00,SSE,158,1.8,3.1,55,0.00,,,0.00,WUHU216HW,2013-05-07 19:19:00,
2013-05-07 12:20:00,70.9,53.4,30.00,South,180,3.8,3.8,54,0.00,,,0.00,WUHU216HW,2013-05-07 19:20:00,
2013-05-07 12:22:00,71.3,53.7,30.00,SSE,158,2.9,3.8,54,0.00,,,0.00,WUHU216HW,2013-05-07 19:22:00,
2013-05-07 12:23:00,71.3,53.7,30.00,SSE,158,2.9,3.8,54,0.00,,,0.00,WUHU216HW,2013-05-07 19:23:00,
2013-05-07 12:24:00,71.3,53.7,30.00,South,180,6.9,6.9,54,0.00,,,0.00,WUHU216HW,2013-05-07 19:24:00,
2013-05-07 12:26:00,71.3,53.2,30.00,SE,135,2.2,6.9,53,0.00,,,0.00,WUHU216HW,2013-05-07 19:26:00,
2013-05-07 12:27:00,71.3,53.7,30.00,SW,225,1.1,6.9,54,0.00,,,0.00,WUHU216HW,2013-05-07 19:27:00,
2013-05-07 12:28:00,71.3,53.7,30.00,SW,225,1.1,6.9,54,0.00,,,0.00,WUHU216HW,2013-05-07 19:28:00,
2013-05-07 12:29:00,71.6,53.6,30.00,South,180,2.7,6.9,53,0.00,,,0.00,WUHU216HW,2013-05-07 19:29:00,
2013-05-07 12:31:00,72.0,53.8,30.00,SSW,203,2.5,6.9,53,0.00,,,0.00,WUHU216HW,2013-05-07 19:31:00,
2013-05-07 12:32:00,71.8,53.7,30.00,SSE,158,3.4,6.9,53,0.00,,,0.00,WUHU216HW,2013-05-07 19:32:00,
2013-05-07 12:33:00,71.8,53.7,30.00,SSE,158,3.4,6.0,53,0.00,,,0.00,WUHU216HW,2013-05-07 19:33:00,
2013-05-07 12:34:00,71.6,53.0,30.00,SSE,158,6.3,6.3,52,0.00,,,0.00,WUHU216HW,2013-05-07 19:34:00,
2013-05-07 12:36:00,71.6,53.6,30.00,SSE,158,7.2,7.2,53,0.00,,,0.00,WUHU216HW,2013-05-07 19:36:00,
2013-05-07 12:37:00,71.1,53.0,30.00,SE,135,5.6,7.2,53,0.00,,,0.00,WUHU216HW,2013-05-07 19:37:00,
2013-05-07 12:38:00,71.1,53.0,30.00,SE,135,5.6,7.2,53,0.00,,,0.00,WUHU216HW,2013-05-07 19:38:00,
2013-05-07 12:39:00,70.9,53.4,30.00,SSE,158,3.8,7.2,54,0.00,,,0.00,WUHU216HW,2013-05-07 19:39:00,
2013-05-07 12:41:00,71.1,53.6,30.00,SSE,158,2.7,7.2,54,0.00,,,0.00,WUHU216HW,2013-05-07 19:41:00,
2013-05-07 12:42:00,71.1,53.6,30.00,SE,135,1.8,7.2,54,0.00,,,0.00,WUHU216HW,2013-05-07 19:42:00,
2013-05-07 12:43:00,71.3,53.7,30.00,ESE,113,2.0,7.2,54,0.00,,,0.00,WUHU216HW,2013-05-07 19:43:00,
2013-05-07 12:45:00,71.6,53.6,30.00,South,180,2.5,7.2,53,0.00,,,0.00,WUHU216HW,2013-05-07 19:45:00,
2013-05-07 12:47:00,72.4,53.6,30.00,SSE,158,5.4,5.6,52,0.00,,,0.00,WUHU216HW,2013-05-07 19:47:00,
2013-05-07 12:48:00,72.5,53.4,30.00,SSE,158,2.5,5.4,51,0.00,,,0.00,WUHU216HW,2013-05-07 19:48:00,
2013-05-07 12:49:00,72.5,53.4,30.00,SSE,158,2.5,5.4,51,0.00,,,0.00,WUHU216HW,2013-05-07 19:49:00,
2013-05-07 12:50:00,72.5,53.4,30.00,SSW,203,3.6,5.4,51,0.00,,,0.00,WUHU216HW,2013-05-07 19:50:00,
2013-05-07 12:52:00,72.4,53.2,30.00,SSE,158,8.5,8.5,51,0.00,,,0.00,WUHU216HW,2013-05-07 19:52:00,
2013-05-07 12:54:00,72.4,53.2,30.00,SSE,158,7.4,8.5,51,0.00,,,0.00,WUHU216HW,2013-05-07 19:54:00,
2013-05-07 12:56:00,71.6,52.6,30.00,SE,135,2.5,8.5,51,0.00,,,0.00,WUHU216HW,2013-05-07 19:56:00,
2013-05-07 12:57:00,71.5,52.8,29.99,SE,135,2.9,8.5,52,0.00,,,0.00,WUHU216HW,2013-05-07 19:57:00,
2013-05-07 12:58:00,71.5,53.4,29.99,SSW,203,6.3,8.5,53,0.00,,,0.00,WUHU216HW,2013-05-07 19:58:00,
2013-05-07 12:59:00,71.6,53.0,30.00,SSE,158,6.3,8.5,52,0.00,,,0.00,WUHU216HW,2013-05-07 19:59:00,
2013-05-07 13:01:00,71.3,53.2,30.00,South,180,2.7,8.5,53,0.00,,,0.00,WUHU216HW,2013-05-07 20:01:00,
2013-05-07 13:02:00,71.3,53.2,30.00,South,180,5.4,7.4,53,0.00,,,0.00,WUHU216HW,2013-05-07 20:02:00,
2013-05-07 13:03:00,71.5,53.4,30.00,SE,135,2.5,7.4,53,0.00,,,0.00,WUHU216HW,2013-05-07 20:03:00,
2013-05-07 13:04:00,71.6,53.6,29.99,SSE,158,1.8,6.9,53,0.00,,,0.00,WUHU216HW,2013-05-07 20:04:00,
2013-05-07 13:05:00,72.0,53.8,30.00,SE,135,2.5,6.9,53,0.00,,,0.00,WUHU216HW,2013-05-07 20:05:00,
2013-05-07 13:06:00,72.2,54.0,30.00,SSE,158,2.7,6.9,53,0.00,,,0.00,WUHU216HW,2013-05-07 20:06:00,
2013-05-07 13:07:00,72.4,54.2,30.00,SSE,158,2.7,6.9,53,0.00,,,0.00,WUHU216HW,2013-05-07 20:07:00,
2013-05-07 13:08:00,72.9,54.2,29.99,ENE,68,1.3,6.9,52,0.00,,,0.00,WUHU216HW,2013-05-07 20:08:00,
2013-05-07 13:09:00,73.1,54.4,30.00,SE,135,1.1,6.9,52,0.00,,,0.00,WUHU216HW,2013-05-07 20:09:00,
2013-05-07 13:10:00,73.6,54.4,29.99,ENE,68,2.7,5.4,51,0.00,,,0.00,WUHU216HW,2013-05-07 20:10:00,
2013-05-07 13:11:00,73.6,54.4,30.00,East,90,3.4,5.4,51,0.00,,,0.00,WUHU216HW,2013-05-07 20:11:00,
2013-05-07 13:12:00,74.0,54.7,29.99,South,180,1.8,3.4,51,0.00,,,0.00,WUHU216HW,2013-05-07 20:12:00,
2013-05-07 13:13:00,74.2,54.4,29.99,SSE,158,4.3,4.3,50,0.00,,,0.00,WUHU216HW,2013-05-07 20:13:00,
2013-05-07 13:14:00,74.2,53.7,29.99,SSE,158,4.3,4.3,49,0.00,,,0.00,WUHU216HW,2013-05-07 20:14:00,
2013-05-07 13:15:00,74.0,53.6,29.99,SSE,158,3.4,4.3,49,0.00,,,0.00,WUHU216HW,2013-05-07 20:15:00,
2013-05-07 13:16:00,73.8,54.0,29.99,ESE,113,2.5,4.3,50,0.00,,,0.00,WUHU216HW,2013-05-07 20:16:00,
2013-05-07 13:17:00,73.8,54.0,29.99,South,180,4.5,4.5,50,0.00,,,0.00,WUHU216HW,2013-05-07 20:17:00,
2013-05-07 13:18:00,73.6,53.8,29.99,SSW,203,5.8,5.8,50,0.00,,,0.00,WUHU216HW,2013-05-07 20:18:00,
2013-05-07 13:20:00,73.6,53.2,29.99,SSE,158,3.4,5.8,49,0.00,,,0.00,WUHU216HW,2013-05-07 20:20:00,
2013-05-07 13:21:00,73.4,53.6,29.99,South,180,4.3,5.8,50,0.00,,,0.00,WUHU216HW,2013-05-07 20:21:00,
2013-05-07 13:23:00,73.1,53.3,29.99,SSE,158,4.3,5.8,50,0.00,,,0.00,WUHU216HW,2013-05-07 20:23:00,
2013-05-07 13:25:00,72.7,53.0,29.99,SE,135,2.5,5.8,50,0.00,,,0.00,WUHU216HW,2013-05-07 20:25:00,
2013-05-07 13:26:00,72.7,53.0,29.99,SE,135,2.5,5.8,50,0.00,,,0.00,WUHU216HW,2013-05-07 20:26:00,
2013-05-07 13:28:00,72.9,53.2,29.99,SSW,203,4.0,5.6,50,0.00,,,0.00,WUHU216HW,2013-05-07 20:28:00,
2013-05-07 13:30:00,72.7,53.5,29.99,SSW,203,5.4,6.3,51,0.00,,,0.00,WUHU216HW,2013-05-07 20:30:00,
2013-05-07 13:31:00,72.7,53.5,29.99,SSW,203,5.4,6.3,51,0.00,,,0.00,WUHU216HW,2013-05-07 20:31:00,
2013-05-07 13:33:00,72.0,52.8,29.99,South,180,6.9,8.7,51,0.00,,,0.00,WUHU216HW,2013-05-07 20:33:00,
2013-05-07 13:36:00,71.6,53.0,29.99,SE,135,4.3,8.7,52,0.00,,,0.00,WUHU216HW,2013-05-07 20:36:00,
2013-05-07 13:38:00,71.3,52.8,29.99,SSE,158,2.0,8.7,52,0.00,,,0.00,WUHU216HW,2013-05-07 20:38:00,
2013-05-07 13:41:00,71.8,53.2,29.99,South,180,5.4,7.8,52,0.00,,,0.00,WUHU216HW,2013-05-07 20:41:00,
2013-05-07 13:43:00,72.0,53.4,29.99,South,180,4.0,7.8,52,0.00,,,0.00,WUHU216HW,2013-05-07 20:43:00,
2013-05-07 13:44:00,72.0,53.4,29.99,South,180,4.0,7.8,52,0.00,,,0.00,WUHU216HW,2013-05-07 20:44:00,
2013-05-07 13:46:00,71.8,52.7,29.99,South,180,4.9,5.4,51,0.00,,,0.00,WUHU216HW,2013-05-07 20:46:00,
2013-05-07 13:47:00,71.8,52.7,29.99,South,180,4.9,5.4,51,0.00,,,0.00,WUHU216HW,2013-05-07 20:47:00,
2013-05-07 13:49:00,71.6,52.6,29.99,South,180,4.7,5.6,51,0.00,,,0.00,WUHU216HW,2013-05-07 20:49:00,
2013-05-07 13:51:00,71.5,52.8,29.99,South,180,5.6,6.5,52,0.00,,,0.00,WUHU216HW,2013-05-07 20:51:00,
2013-05-07 13:52:00,71.5,52.8,29.99,South,180,5.6,6.5,52,0.00,,,0.00,WUHU216HW,2013-05-07 20:52:00,
2013-05-07 13:54:00,71.3,52.8,29.99,SSE,158,5.8,6.5,52,0.00,,,0.00,WUHU216HW,2013-05-07 20:54:00,
2013-05-07 13:56:00,70.9,52.9,29.99,SSE,158,5.1,6.5,53,0.00,,,0.00,WUHU216HW,2013-05-07 20:56:00,
2013-05-07 13:57:00,70.9,52.9,29.99,SSE,158,5.1,6.5,53,0.00,,,0.00,WUHU216HW,2013-05-07 20:57:00,
2013-05-07 13:58:00,70.7,52.8,29.99,SSE,158,2.7,6.5,53,0.00,,,0.00,WUHU216HW,2013-05-07 20:58:00,
2013-05-07 13:59:00,70.9,52.9,29.99,SE,135,3.1,6.5,53,0.00,,,0.00,WUHU216HW,2013-05-07 20:59:00,
2013-05-07 14:01:00,71.3,53.7,29.99,South,180,3.4,5.8,54,0.00,,,0.00,WUHU216HW,2013-05-07 21:01:00,
2013-05-07 14:02:00,71.3,53.7,29.99,SSE,158,5.6,5.8,54,0.00,,,0.00,WUHU216HW,2013-05-07 21:02:00,
2013-05-07 14:03:00,71.5,53.4,29.99,SSE,158,3.4,5.6,53,0.00,,,0.00,WUHU216HW,2013-05-07 21:03:00,
2013-05-07 14:04:00,71.5,52.8,29.99,SSE,158,3.1,5.6,52,0.00,,,0.00,WUHU216HW,2013-05-07 21:04:00,
2013-05-07 14:06:00,71.6,53.6,29.99,WSW,248,1.3,5.6,53,0.00,,,0.00,WUHU216HW,2013-05-07 21:06:00,
2013-05-07 14:07:00,71.6,53.6,29.99,South,180,2.5,5.6,53,0.00,,,0.00,WUHU216HW,2013-05-07 21:07:00,
2013-05-07 14:08:00,72.0,53.4,29.99,South,180,5.4,5.6,52,0.00,,,0.00,WUHU216HW,2013-05-07 21:08:00,
2013-05-07 14:09:00,72.0,52.8,29.99,ESE,113,4.9,5.6,51,0.00,,,0.00,WUHU216HW,2013-05-07 21:09:00,
2013-05-07 14:12:00,72.2,53.0,29.99,South,180,7.4,7.4,51,0.00,,,0.00,WUHU216HW,2013-05-07 21:12:00,
2013-05-07 14:13:00,72.0,52.8,29.99,South,180,4.0,7.4,51,0.00,,,0.00,WUHU216HW,2013-05-07 21:13:00,
2013-05-07 14:14:00,71.8,52.7,29.99,South,180,7.6,7.6,51,0.00,,,0.00,WUHU216HW,2013-05-07 21:14:00,
2013-05-07 14:15:00,71.8,52.7,29.99,South,180,7.6,7.6,51,0.00,,,0.00,WUHU216HW,2013-05-07 21:15:00,
2013-05-07 14:17:00,71.6,53.0,29.99,SSE,158,3.6,7.6,52,0.00,,,0.00,WUHU216HW,2013-05-07 21:17:00,
2013-05-07 14:18:00,71.6,53.0,29.99,South,180,4.3,7.6,52,0.00,,,0.00,WUHU216HW,2013-05-07 21:18:00,
2013-05-07 14:19:00,71.6,53.0,29.99,SW,225,3.1,7.6,52,0.00,,,0.00,WUHU216HW,2013-05-07 21:19:00,
2013-05-07 14:20:00,71.6,53.0,29.99,SW,225,3.1,7.6,52,0.00,,,0.00,WUHU216HW,2013-05-07 21:20:00,
2013-05-07 14:22:00,72.0,52.8,29.99,SSE,158,4.3,7.6,51,0.00,,,0.00,WUHU216HW,2013-05-07 21:22:00,
2013-05-07 14:23:00,72.0,52.8,29.99,SSE,158,4.3,7.6,51,0.00,,,0.00,WUHU216HW,2013-05-07 21:23:00,
2013-05-07 14:24:00,72.2,53.0,29.99,SSE,158,3.6,4.7,51,0.00,,,0.00,WUHU216HW,2013-05-07 21:24:00,
2013-05-07 14:25:00,72.2,53.0,29.99,SSE,158,3.6,4.7,51,0.00,,,0.00,WUHU216HW,2013-05-07 21:25:00,
2013-05-07 14:28:00,72.4,52.7,29.99,SE,135,1.8,6.9,50,0.00,,,0.00,WUHU216HW,2013-05-07 21:28:00,
2013-05-07 14:30:00,72.4,52.7,29.99,SSE,158,5.8,6.9,50,0.00,,,0.00,WUHU216HW,2013-05-07 21:30:00,
2013-05-07 14:33:00,72.7,54.0,29.99,South,180,5.6,7.2,52,0.00,,,0.00,WUHU216HW,2013-05-07 21:33:00,
2013-05-07 14:34:00,73.1,53.3,29.98,South,180,6.0,7.2,50,0.00,,,0.00,WUHU216HW,2013-05-07 21:34:00,
2013-05-07 14:35:00,73.1,53.3,29.98,South,180,6.0,7.2,50,0.00,,,0.00,WUHU216HW,2013-05-07 21:35:00,
2013-05-07 14:38:00,73.4,53.6,29.98,SE,135,6.9,7.2,50,0.00,,,0.00,WUHU216HW,2013-05-07 21:38:00,
2013-05-07 14:39:00,73.4,53.6,29.98,SE,135,6.9,7.2,50,0.00,,,0.00,WUHU216HW,2013-05-07 21:39:00,
2013-05-07 14:40:00,73.4,53.0,29.98,South,180,7.2,7.2,49,0.00,,,0.00,WUHU216HW,2013-05-07 21:40:00,
2013-05-07 14:43:00,73.6,53.2,29.99,SSE,158,3.8,7.2,49,0.00,,,0.00,WUHU216HW,2013-05-07 21:43:00,
2013-05-07 14:44:00,73.6,53.2,29.99,SSE,158,3.8,7.2,49,0.00,,,0.00,WUHU216HW,2013-05-07 21:44:00,
2013-05-07 14:45:00,73.4,53.0,29.98,South,180,5.8,7.2,49,0.00,,,0.00,WUHU216HW,2013-05-07 21:45:00,
2013-05-07 14:48:00,73.1,53.3,29.98,SE,135,2.5,7.2,50,0.00,,,0.00,WUHU216HW,2013-05-07 21:48:00,
2013-05-07 14:49:00,73.1,53.3,29.98,SE,135,2.5,7.2,50,0.00,,,0.00,WUHU216HW,2013-05-07 21:49:00,
2013-05-07 14:50:00,73.3,53.5,29.98,South,180,1.6,5.8,50,0.00,,,0.00,WUHU216HW,2013-05-07 21:50:00,
2013-05-07 14:54:00,74.2,54.4,29.98,SE,135,1.3,5.8,50,0.00,,,0.00,WUHU216HW,2013-05-07 21:54:00,
2013-05-07 14:55:00,74.7,54.9,29.98,SSE,158,2.2,5.4,50,0.00,,,0.00,WUHU216HW,2013-05-07 21:55:00,
2013-05-07 14:59:00,75.8,54.1,29.98,SSW,203,7.2,7.2,47,0.00,,,0.00,WUHU216HW,2013-05-07 21:59:00,
2013-05-07 15:00:00,75.8,54.1,29.98,SSW,203,3.1,7.2,47,0.00,,,0.00,WUHU216HW,2013-05-07 22:00:00,
2013-05-07 15:01:00,75.6,53.9,29.98,South,180,1.1,7.2,47,0.00,,,0.00,WUHU216HW,2013-05-07 22:01:00,
2013-05-07 15:04:00,76.0,54.3,29.98,South,180,4.0,7.2,47,0.00,,,0.00,WUHU216HW,2013-05-07 22:04:00,
2013-05-07 15:05:00,76.0,54.3,29.98,South,180,4.0,7.2,47,0.00,,,0.00,WUHU216HW,2013-05-07 22:05:00,
2013-05-07 15:06:00,76.0,54.3,29.98,South,180,6.3,7.2,47,0.00,,,0.00,WUHU216HW,2013-05-07 22:06:00,
2013-05-07 15:09:00,76.1,54.5,29.98,SE,135,2.9,6.3,47,0.00,,,0.00,WUHU216HW,2013-05-07 22:09:00,
2013-05-07 15:10:00,76.3,54.5,29.97,South,180,4.5,6.3,47,0.00,,,0.00,WUHU216HW,2013-05-07 22:10:00,
2013-05-07 15:11:00,76.5,54.1,29.97,South,180,6.3,6.3,46,0.00,,,0.00,WUHU216HW,2013-05-07 22:11:00,
2013-05-07 15:14:00,76.0,53.6,29.97,South,180,6.0,7.6,46,0.00,,,0.00,WUHU216HW,2013-05-07 22:14:00,
2013-05-07 15:15:00,76.0,53.6,29.97,South,180,6.0,7.6,46,0.00,,,0.00,WUHU216HW,2013-05-07 22:15:00,
2013-05-07 15:17:00,75.6,53.9,29.97,East,90,1.8,7.6,47,0.00,,,0.00,WUHU216HW,2013-05-07 22:17:00,
2013-05-07 15:20:00,75.8,54.7,29.97,SSE,158,1.1,7.6,48,0.00,,,0.00,WUHU216HW,2013-05-07 22:20:00,
2013-05-07 15:22:00,76.5,54.1,29.97,SSE,158,1.1,7.4,46,0.00,,,0.00,WUHU216HW,2013-05-07 22:22:00,
2013-05-07 15:25:00,77.0,54.6,29.97,SSE,158,1.8,4.9,46,0.00,,,0.00,WUHU216HW,2013-05-07 22:25:00,
2013-05-07 15:26:00,77.2,54.8,29.97,SSE,158,2.2,3.4,46,0.00,,,0.00,WUHU216HW,2013-05-07 22:26:00,
2013-05-07 15:27:00,77.4,53.7,29.97,SE,135,3.8,3.8,44,0.00,,,0.00,WUHU216HW,2013-05-07 22:27:00,
2013-05-07 15:30:00,77.4,53.7,29.97,SSE,158,4.7,4.7,44,0.00,,,0.00,WUHU216HW,2013-05-07 22:30:00,
2013-05-07 15:31:00,77.6,54.5,29.97,SE,135,2.5,4.7,45,0.00,,,0.00,WUHU216HW,2013-05-07 22:31:00,
2013-05-07 15:32:00,77.8,54.6,29.97,SSE,158,2.0,4.7,45,0.00,,,0.00,WUHU216HW,2013-05-07 22:32:00,
2013-05-07 15:35:00,77.9,54.2,29.97,SE,135,4.5,4.7,44,0.00,,,0.00,WUHU216HW,2013-05-07 22:35:00,
2013-05-07 15:36:00,78.1,54.4,29.97,South,180,5.4,5.4,44,0.00,,,0.00,WUHU216HW,2013-05-07 22:36:00,
2013-05-07 15:37:00,78.1,54.4,29.97,SSW,203,3.6,5.4,44,0.00,,,0.00,WUHU216HW,2013-05-07 22:37:00,
2013-05-07 15:40:00,77.9,53.6,29.97,South,180,6.9,6.9,43,0.00,,,0.00,WUHU216HW,2013-05-07 22:40:00,
2013-05-07 15:41:00,77.9,53.6,29.97,South,180,6.9,6.9,43,0.00,,,0.00,WUHU216HW,2013-05-07 22:41:00,
2013-05-07 15:43:00,77.4,53.7,29.97,South,180,4.7,6.9,44,0.00,,,0.00,WUHU216HW,2013-05-07 22:43:00,
2013-05-07 15:45:00,77.0,53.4,29.97,SSE,158,4.5,6.9,44,0.00,,,0.00,WUHU216HW,2013-05-07 22:45:00,
2013-05-07 15:46:00,77.0,53.4,29.97,SSE,158,4.5,6.9,44,0.00,,,0.00,WUHU216HW,2013-05-07 22:46:00,
2013-05-07 15:48:00,77.2,54.2,29.97,South,180,5.6,6.9,45,0.00,,,0.00,WUHU216HW,2013-05-07 22:48:00,
2013-05-07 15:50:00,77.0,54.0,29.96,SSE,158,5.1,6.9,45,0.00,,,0.00,WUHU216HW,2013-05-07 22:50:00,
2013-05-07 15:51:00,77.0,54.0,29.96,SSE,158,5.1,6.9,45,0.00,,,0.00,WUHU216HW,2013-05-07 22:51:00,
2013-05-07 15:53:00,77.0,54.0,29.96,SSE,158,5.1,6.5,45,0.00,,,0.00,WUHU216HW,2013-05-07 22:53:00,
2013-05-07 15:55:00,77.0,54.0,29.96,SSE,158,6.9,6.9,45,0.00,,,0.00,WUHU216HW,2013-05-07 22:55:00,
2013-05-07 15:56:00,77.0,54.0,29.96,SSE,158,6.9,6.9,45,0.00,,,0.00,WUHU216HW,2013-05-07 22:56:00,
2013-05-07 15:58:00,76.7,53.6,29.96,South,180,3.6,6.9,45,0.00,,,0.00,WUHU216HW,2013-05-07 22:58:00,
2013-05-07 16:00:00,76.3,53.4,29.96,SSE,158,3.6,6.9,45,0.00,,,0.00,WUHU216HW,2013-05-07 23:00:00,
2013-05-07 16:01:00,76.3,53.4,29.96,South,180,4.0,6.9,45,0.00,,,0.00,WUHU216HW,2013-05-07 23:01:00,
2013-05-07 16:02:00,76.3,53.4,29.96,South,180,4.0,6.9,45,0.00,,,0.00,WUHU216HW,2013-05-07 23:02:00,
2013-05-07 16:03:00,76.3,53.4,29.96,South,180,4.0,6.9,45,0.00,,,0.00,WUHU216HW,2013-05-07 23:03:00,
2013-05-07 16:06:00,76.1,53.2,29.96,SSE,158,5.4,5.8,45,0.00,,,0.00,WUHU216HW,2013-05-07 23:06:00,
2013-05-07 16:07:00,76.1,53.8,29.96,SSE,158,3.8,5.4,46,0.00,,,0.00,WUHU216HW,2013-05-07 23:07:00,
2013-05-07 16:08:00,76.1,53.8,29.96,South,180,2.7,5.4,46,0.00,,,0.00,WUHU216HW,2013-05-07 23:08:00,
2013-05-07 16:11:00,76.1,53.8,29.96,South,180,2.7,5.4,46,0.00,,,0.00,WUHU216HW,2013-05-07 23:11:00,
2013-05-07 16:12:00,77.2,54.8,29.96,South,180,3.8,5.4,46,0.00,,,0.00,WUHU216HW,2013-05-07 23:12:00,
2013-05-07 16:13:00,77.9,54.2,29.96,South,180,4.7,5.4,44,0.00,,,0.00,WUHU216HW,2013-05-07 23:13:00,
2013-05-07 16:16:00,78.1,54.4,29.96,South,180,6.3,6.3,44,0.00,,,0.00,WUHU216HW,2013-05-07 23:16:00,
2013-05-07 16:17:00,77.9,54.2,29.96,South,180,5.1,6.3,44,0.00,,,0.00,WUHU216HW,2013-05-07 23:17:00,
2013-05-07 16:18:00,77.6,53.9,29.96,South,180,4.9,6.3,44,0.00,,,0.00,WUHU216HW,2013-05-07 23:18:00,
2013-05-07 16:21:00,77.4,53.7,29.96,South,180,4.0,6.3,44,0.00,,,0.00,WUHU216HW,2013-05-07 23:21:00,
2013-05-07 16:22:00,77.4,53.7,29.96,South,180,4.0,6.3,44,0.00,,,0.00,WUHU216HW,2013-05-07 23:22:00,
2013-05-07 16:23:00,77.4,54.4,29.96,South,180,6.3,6.3,45,0.00,,,0.00,WUHU216HW,2013-05-07 23:23:00,
2013-05-07 16:26:00,77.2,54.2,29.96,South,180,4.5,6.7,45,0.00,,,0.00,WUHU216HW,2013-05-07 23:26:00,
2013-05-07 16:27:00,77.2,54.2,29.96,South,180,4.5,6.7,45,0.00,,,0.00,WUHU216HW,2013-05-07 23:27:00,
2013-05-07 16:28:00,77.2,54.2,29.96,SE,135,1.3,6.7,45,0.00,,,0.00,WUHU216HW,2013-05-07 23:28:00,
2013-05-07 16:29:00,77.4,54.9,29.96,South,180,2.9,6.7,46,0.00,,,0.00,WUHU216HW,2013-05-07 23:29:00,
2013-05-07 16:32:00,78.1,54.4,29.96,South,180,4.0,6.7,44,0.00,,,0.00,WUHU216HW,2013-05-07 23:32:00,
2013-05-07 16:33:00,78.3,54.6,29.96,South,180,5.6,6.7,44,0.00,,,0.00,WUHU216HW,2013-05-07 23:33:00,
2013-05-07 16:34:00,78.3,54.6,29.96,South,180,6.3,6.7,44,0.00,,,0.00,WUHU216HW,2013-05-07 23:34:00,
2013-05-07 16:37:00,78.1,54.4,29.95,SSW,203,4.0,6.3,44,0.00,,,0.00,WUHU216HW,2013-05-07 23:37:00,
2013-05-07 16:38:00,78.1,54.4,29.96,SSW,203,4.0,6.3,44,0.00,,,0.00,WUHU216HW,2013-05-07 23:38:00,
2013-05-07 16:39:00,78.1,54.4,29.96,SSW,203,4.0,6.3,44,0.00,,,0.00,WUHU216HW,2013-05-07 23:39:00,
2013-05-07 16:42:00,77.4,54.4,29.95,South,180,6.0,6.5,45,0.00,,,0.00,WUHU216HW,2013-05-07 23:42:00,
2013-05-07 16:43:00,77.4,54.4,29.95,South,180,6.0,6.5,45,0.00,,,0.00,WUHU216HW,2013-05-07 23:43:00,
2013-05-07 16:44:00,77.8,54.6,29.95,South,180,4.5,6.5,45,0.00,,,0.00,WUHU216HW,2013-05-07 23:44:00,
2013-05-07 16:45:00,77.8,54.0,29.95,SSE,158,4.5,6.5,44,0.00,,,0.00,WUHU216HW,2013-05-07 23:45:00,
2013-05-07 16:47:00,77.8,54.0,29.95,South,180,5.1,6.5,44,0.00,,,0.00,WUHU216HW,2013-05-07 23:47:00,
2013-05-07 16:48:00,77.8,54.0,29.95,South,180,5.1,6.5,44,0.00,,,0.00,WUHU216HW,2013-05-07 23:48:00,
2013-05-07 16:49:00,77.8,54.0,29.95,South,180,3.6,6.5,44,0.00,,,0.00,WUHU216HW,2013-05-07 23:49:00,
2013-05-07 16:50:00,77.8,54.0,29.95,South,180,2.5,6.5,44,0.00,,,0.00,WUHU216HW,2013-05-07 23:50:00,
2013-05-07 16:52:00,77.6,53.9,29.95,South,180,4.7,5.1,44,0.00,,,0.00,WUHU216HW,2013-05-07 23:52:00,
2013-05-07 16:53:00,77.6,53.9,29.95,South,180,4.7,5.1,44,0.00,,,0.00,WUHU216HW,2013-05-07 23:53:00,
2013-05-07 16:54:00,77.6,53.9,29.95,South,180,4.7,5.1,44,0.00,,,0.00,WUHU216HW,2013-05-07 23:54:00,
2013-05-07 16:55:00,77.6,53.9,29.95,South,180,4.7,5.1,44,0.00,,,0.00,WUHU216HW,2013-05-07 23:55:00,
2013-05-07 16:57:00,76.7,53.6,29.95,South,180,4.5,4.7,45,0.00,,,0.00,WUHU216HW,2013-05-07 23:57:00,
2013-05-07 16:58:00,76.7,53.6,29.95,South,180,4.5,4.7,45,0.00,,,0.00,WUHU216HW,2013-05-07 23:58:00,
2013-05-07 16:59:00,76.7,53.6,29.95,South,180,4.5,4.7,45,0.00,,,0.00,WUHU216HW,2013-05-07 23:59:00,
2013-05-07 17:00:00,76.7,53.6,29.95,South,180,4.5,4.7,45,0.00,,,0.00,WUHU216HW,2013-05-08 00:00:00,
2013-05-07 17:02:00,76.5,53.6,29.95,SSE,158,4.7,4.7,45,0.00,,,0.00,WUHU216HW,2013-05-08 00:02:00,
2013-05-07 17:03:00,76.5,53.6,29.95,South,180,3.4,4.7,45,0.00,,,0.00,WUHU216HW,2013-05-08 00:03:00,
2013-05-07 17:04:00,76.7,54.3,29.95,South,180,3.1,4.7,46,0.00,,,0.00,WUHU216HW,2013-05-08 00:04:00,
2013-05-07 17:05:00,76.7,53.6,29.95,SSW,203,3.4,4.7,45,0.00,,,0.00,WUHU216HW,2013-05-08 00:05:00,
2013-05-07 17:07:00,77.0,54.6,29.95,South,180,3.8,4.7,46,0.00,,,0.00,WUHU216HW,2013-05-08 00:07:00,
2013-05-07 17:08:00,77.4,54.4,29.95,South,180,4.5,4.7,45,0.00,,,0.00,WUHU216HW,2013-05-08 00:08:00,
2013-05-07 17:09:00,77.6,54.5,29.95,SSE,158,3.6,4.7,45,0.00,,,0.00,WUHU216HW,2013-05-08 00:09:00,
2013-05-07 17:10:00,77.6,54.5,29.95,SSE,158,3.6,4.7,45,0.00,,,0.00,WUHU216HW,2013-05-08 00:10:00,
2013-05-07 17:13:00,77.6,53.9,29.95,South,180,4.3,4.5,44,0.00,,,0.00,WUHU216HW,2013-05-08 00:13:00,
2013-05-07 17:14:00,77.0,54.0,29.95,South,180,4.0,4.5,45,0.00,,,0.00,WUHU216HW,2013-05-08 00:14:00,
2013-05-07 17:15:00,76.9,53.8,29.96,South,180,4.7,4.7,45,0.00,,,0.00,WUHU216HW,2013-05-08 00:15:00,
2013-05-07 17:18:00,76.9,53.8,29.95,South,180,4.5,5.4,45,0.00,,,0.00,WUHU216HW,2013-05-08 00:18:00,
2013-05-07 17:19:00,76.9,53.8,29.95,SSE,158,4.0,5.4,45,0.00,,,0.00,WUHU216HW,2013-05-08 00:19:00,
2013-05-07 17:20:00,76.9,53.8,29.95,South,180,4.0,5.4,45,0.00,,,0.00,WUHU216HW,2013-05-08 00:20:00,
2013-05-07 17:23:00,76.9,53.8,29.95,SSW,203,4.0,5.4,45,0.00,,,0.00,WUHU216HW,2013-05-08 00:23:00,
2013-05-07 17:24:00,76.9,53.8,29.95,South,180,5.4,5.4,45,0.00,,,0.00,WUHU216HW,2013-05-08 00:24:00,
2013-05-07 17:25:00,76.7,53.6,29.95,South,180,4.7,5.4,45,0.00,,,0.00,WUHU216HW,2013-05-08 00:25:00,
2013-05-07 17:26:00,76.7,53.6,29.95,South,180,4.7,5.4,45,0.00,,,0.00,WUHU216HW,2013-05-08 00:26:00,
2013-05-07 17:28:00,76.5,53.6,29.95,SE,135,6.3,6.3,45,0.00,,,0.00,WUHU216HW,2013-05-08 00:28:00,
2013-05-07 17:29:00,76.0,53.6,29.95,SSE,158,4.3,6.3,46,0.00,,,0.00,WUHU216HW,2013-05-08 00:29:00,
2013-05-07 17:30:00,76.0,53.6,29.95,SSE,158,4.3,6.3,46,0.00,,,0.00,WUHU216HW,2013-05-08 00:30:00,
2013-05-07 17:31:00,76.0,53.6,29.95,SSE,158,3.4,6.3,46,0.00,,,0.00,WUHU216HW,2013-05-08 00:31:00,
2013-05-07 17:33:00,75.6,53.9,29.95,SSE,158,3.6,6.3,47,0.00,,,0.00,WUHU216HW,2013-05-08 00:33:00,
2013-05-07 17:34:00,75.6,53.9,29.95,SSE,158,4.5,6.3,47,0.00,,,0.00,WUHU216HW,2013-05-08 00:34:00,
2013-05-07 17:35:00,75.6,53.9,29.95,SSE,158,4.5,6.3,47,0.00,,,0.00,WUHU216HW,2013-05-08 00:35:00,
2013-05-07 17:36:00,75.6,53.9,29.95,South,180,4.7,6.3,47,0.00,,,0.00,WUHU216HW,2013-05-08 00:36:00,
2013-05-07 17:38:00,76.1,54.5,29.95,SSE,158,4.9,4.9,47,0.00,,,0.00,WUHU216HW,2013-05-08 00:38:00,
2013-05-07 17:40:00,76.1,53.8,29.95,SSW,203,4.7,4.9,46,0.00,,,0.00,WUHU216HW,2013-05-08 00:40:00,
2013-05-07 17:41:00,76.1,54.5,29.95,SSE,158,4.9,4.9,47,0.00,,,0.00,WUHU216HW,2013-05-08 00:41:00,
2013-05-07 17:43:00,76.1,53.8,29.95,South,180,5.6,5.6,46,0.00,,,0.00,WUHU216HW,2013-05-08 00:43:00,
2013-05-07 17:45:00,76.0,53.6,29.95,South,180,5.1,5.6,46,0.00,,,0.00,WUHU216HW,2013-05-08 00:45:00,
2013-05-07 17:46:00,75.6,53.9,29.95,SSE,158,3.8,5.6,47,0.00,,,0.00,WUHU216HW,2013-05-08 00:46:00,
2013-05-07 17:47:00,75.6,53.9,29.95,SSE,158,3.8,5.6,47,0.00,,,0.00,WUHU216HW,2013-05-08 00:47:00,
2013-05-07 17:49:00,75.4,53.7,29.95,South,180,4.0,5.6,47,0.00,,,0.00,WUHU216HW,2013-05-08 00:49:00,
2013-05-07 17:50:00,75.4,53.7,29.95,South,180,4.0,5.6,47,0.00,,,0.00,WUHU216HW,2013-05-08 00:50:00,
2013-05-07 17:51:00,75.4,53.7,29.95,South,180,4.0,5.6,47,0.00,,,0.00,WUHU216HW,2013-05-08 00:51:00,
2013-05-07 17:52:00,75.4,53.7,29.95,South,180,4.0,5.6,47,0.00,,,0.00,WUHU216HW,2013-05-08 00:52:00,
2013-05-07 17:54:00,75.6,53.9,29.95,South,180,4.9,5.4,47,0.00,,,0.00,WUHU216HW,2013-05-08 00:54:00,
2013-05-07 17:55:00,75.6,53.9,29.95,South,180,4.9,5.4,47,0.00,,,0.00,WUHU216HW,2013-05-08 00:55:00,
2013-05-07 17:56:00,75.6,53.9,29.95,South,180,4.9,5.4,47,0.00,,,0.00,WUHU216HW,2013-05-08 00:56:00,
2013-05-07 17:57:00,75.6,53.9,29.95,South,180,4.9,5.4,47,0.00,,,0.00,WUHU216HW,2013-05-08 00:57:00,
2013-05-07 18:00:00,75.1,54.0,29.95,SSE,158,5.4,5.4,48,0.00,,,0.00,WUHU216HW,2013-05-08 01:00:00,
2013-05-07 18:01:00,75.1,54.0,29.95,SE,135,3.6,5.4,48,0.00,,,0.00,WUHU216HW,2013-05-08 01:01:00,
2013-05-07 18:02:00,75.1,54.0,29.95,South,180,4.0,5.4,48,0.00,,,0.00,WUHU216HW,2013-05-08 01:02:00,
2013-05-07 18:05:00,75.1,54.0,29.95,SSW,203,4.7,5.6,48,0.00,,,0.00,WUHU216HW,2013-05-08 01:05:00,
2013-05-07 18:06:00,75.1,54.0,29.95,SSW,203,4.7,5.6,48,0.00,,,0.00,WUHU216HW,2013-05-08 01:06:00,
2013-05-07 18:07:00,74.7,53.7,29.95,South,180,4.3,5.6,48,0.00,,,0.00,WUHU216HW,2013-05-08 01:07:00,
2013-05-07 18:10:00,74.5,53.6,29.95,South,180,4.0,5.6,48,0.00,,,0.00,WUHU216HW,2013-05-08 01:10:00,
2013-05-07 18:11:00,74.3,53.9,29.95,South,180,4.3,5.6,49,0.00,,,0.00,WUHU216HW,2013-05-08 01:11:00,
2013-05-07 18:12:00,74.3,53.9,29.95,South,180,4.3,5.6,49,0.00,,,0.00,WUHU216HW,2013-05-08 01:12:00,
2013-05-07 18:15:00,74.3,53.9,29.95,SSE,158,5.6,5.6,49,0.00,,,0.00,WUHU216HW,2013-05-08 01:15:00,
2013-05-07 18:16:00,74.2,53.7,29.95,South,180,6.0,6.0,49,0.00,,,0.00,WUHU216HW,2013-05-08 01:16:00,
2013-05-07 18:17:00,74.2,53.7,29.95,South,180,6.0,6.0,49,0.00,,,0.00,WUHU216HW,2013-05-08 01:17:00,
2013-05-07 18:18:00,74.2,53.7,29.95,SSE,158,4.0,6.0,49,0.00,,,0.00,WUHU216HW,2013-05-08 01:18:00,
2013-05-07 18:20:00,74.0,53.6,29.95,SSE,158,5.4,6.0,49,0.00,,,0.00,WUHU216HW,2013-05-08 01:20:00,
2013-05-07 18:21:00,73.8,53.4,29.95,SE,135,4.7,6.0,49,0.00,,,0.00,WUHU216HW,2013-05-08 01:21:00,
2013-05-07 18:22:00,73.8,53.4,29.95,SE,135,4.7,6.0,49,0.00,,,0.00,WUHU216HW,2013-05-08 01:22:00,
2013-05-07 18:23:00,73.6,53.8,29.95,SE,135,5.4,6.0,50,0.00,,,0.00,WUHU216HW,2013-05-08 01:23:00,
2013-05-07 18:25:00,73.6,53.2,29.95,SSE,158,5.6,6.0,49,0.00,,,0.00,WUHU216HW,2013-05-08 01:25:00,
2013-05-07 18:26:00,73.4,53.6,29.95,SSE,158,4.7,6.0,50,0.00,,,0.00,WUHU216HW,2013-05-08 01:26:00,
2013-05-07 18:27:00,73.4,53.6,29.95,SSE,158,4.7,6.0,50,0.00,,,0.00,WUHU216HW,2013-05-08 01:27:00,
2013-05-07 18:28:00,73.1,53.3,29.95,South,180,4.0,6.0,50,0.00,,,0.00,WUHU216HW,2013-05-08 01:28:00,
2013-05-07 18:31:00,72.9,53.6,29.95,South,180,5.1,6.0,51,0.00,,,0.00,WUHU216HW,2013-05-08 01:31:00,
2013-05-07 18:32:00,72.9,53.6,29.95,South,180,5.1,6.0,51,0.00,,,0.00,WUHU216HW,2013-05-08 01:32:00,
2013-05-07 18:33:00,72.5,53.4,29.95,South,180,5.6,5.6,51,0.00,,,0.00,WUHU216HW,2013-05-08 01:33:00,
2013-05-07 18:36:00,72.4,53.6,29.95,SSE,158,6.0,6.0,52,0.00,,,0.00,WUHU216HW,2013-05-08 01:36:00,
2013-05-07 18:37:00,72.4,53.2,29.95,SE,135,5.4,6.0,51,0.00,,,0.00,WUHU216HW,2013-05-08 01:37:00,
2013-05-07 18:39:00,72.2,53.0,29.95,South,180,4.0,6.0,51,0.00,,,0.00,WUHU216HW,2013-05-08 01:39:00,
2013-05-07 18:41:00,72.2,53.6,29.95,SSE,158,4.5,6.0,52,0.00,,,0.00,WUHU216HW,2013-05-08 01:41:00,
2013-05-07 18:42:00,72.4,53.6,29.95,South,180,6.0,6.0,52,0.00,,,0.00,WUHU216HW,2013-05-08 01:42:00,
2013-05-07 18:43:00,72.2,53.6,29.95,SSE,158,5.4,6.0,52,0.00,,,0.00,WUHU216HW,2013-05-08 01:43:00,
2013-05-07 18:44:00,72.2,53.6,29.95,SSE,158,5.4,6.0,52,0.00,,,0.00,WUHU216HW,2013-05-08 01:44:00,
2013-05-07 18:46:00,72.4,53.6,29.95,South,180,5.4,6.0,52,0.00,,,0.00,WUHU216HW,2013-05-08 01:46:00,
2013-05-07 18:47:00,72.4,53.6,29.95,SSE,158,3.6,6.0,52,0.00,,,0.00,WUHU216HW,2013-05-08 01:47:00,
2013-05-07 18:48:00,72.4,53.6,29.95,SSE,158,3.6,6.0,52,0.00,,,0.00,WUHU216HW,2013-05-08 01:48:00,
2013-05-07 18:49:00,72.4,53.6,29.95,SSE,158,3.6,6.0,52,0.00,,,0.00,WUHU216HW,2013-05-08 01:49:00,
2013-05-07 18:51:00,72.9,53.6,29.95,SE,135,4.3,5.4,51,0.00,,,0.00,WUHU216HW,2013-05-08 01:51:00,
2013-05-07 18:53:00,72.9,53.6,29.95,SE,135,4.3,5.4,51,0.00,,,0.00,WUHU216HW,2013-05-08 01:53:00,
2013-05-07 18:54:00,73.4,54.2,29.95,SSW,203,4.3,5.4,51,0.00,,,0.00,WUHU216HW,2013-05-08 01:54:00,
2013-05-07 18:56:00,73.4,53.6,29.95,South,180,4.3,5.8,50,0.00,,,0.00,WUHU216HW,2013-05-08 01:56:00,
2013-05-07 18:58:00,73.4,53.6,29.95,South,180,4.3,5.8,50,0.00,,,0.00,WUHU216HW,2013-05-08 01:58:00,
2013-05-07 18:59:00,73.4,53.6,29.95,South,180,4.3,5.8,50,0.00,,,0.00,WUHU216HW,2013-05-08 01:59:00,
2013-05-07 19:01:00,73.8,54.0,29.95,South,180,2.2,5.8,50,0.00,,,0.00,WUHU216HW,2013-05-08 02:01:00,
2013-05-07 19:03:00,73.8,54.0,29.95,SSE,158,4.9,5.8,50,0.00,,,0.00,WUHU216HW,2013-05-08 02:03:00,
2013-05-07 19:04:00,73.8,54.0,29.95,SSE,158,4.9,5.8,50,0.00,,,0.00,WUHU216HW,2013-05-08 02:04:00,
2013-05-07 19:07:00,74.2,54.4,29.95,South,180,2.7,4.9,50,0.00,,,0.00,WUHU216HW,2013-05-08 02:07:00,
2013-05-07 19:08:00,74.2,54.4,29.95,South,180,2.7,4.9,50,0.00,,,0.00,WUHU216HW,2013-05-08 02:08:00,
2013-05-07 19:09:00,74.3,54.5,29.95,South,180,1.6,4.9,50,0.00,,,0.00,WUHU216HW,2013-05-08 02:09:00,
2013-05-07 19:10:00,74.3,54.5,29.95,SSE,158,1.1,4.9,50,0.00,,,0.00,WUHU216HW,2013-05-08 02:10:00,
2013-05-07 19:12:00,74.7,54.9,29.95,SSW,203,1.1,4.9,50,0.00,,,0.00,WUHU216HW,2013-05-08 02:12:00,
2013-05-07 19:13:00,74.7,54.9,29.95,SE,135,1.1,4.9,50,0.00,,,0.00,WUHU216HW,2013-05-08 02:13:00,
2013-05-07 19:14:00,75.1,54.6,29.95,South,180,0.7,4.9,49,0.00,,,0.00,WUHU216HW,2013-05-08 02:14:00,
2013-05-07 19:15:00,75.1,55.3,29.95,ESE,113,0.9,2.7,50,0.00,,,0.00,WUHU216HW,2013-05-08 02:15:00,
2013-05-07 19:17:00,75.6,55.2,29.95,ESE,113,2.0,2.7,49,0.00,,,0.00,WUHU216HW,2013-05-08 02:17:00,
2013-05-07 19:18:00,75.6,55.2,29.95,SE,135,1.8,2.0,49,0.00,,,0.00,WUHU216HW,2013-05-08 02:18:00,
2013-05-07 19:19:00,75.6,55.2,29.96,SE,135,1.8,2.0,49,0.00,,,0.00,WUHU216HW,2013-05-08 02:19:00,
2013-05-07 19:20:00,75.8,54.7,29.95,South,180,3.4,3.4,48,0.00,,,0.00,WUHU216HW,2013-05-08 02:20:00,
2013-05-07 19:23:00,75.8,54.7,29.96,South,180,4.7,4.7,48,0.00,,,0.00,WUHU216HW,2013-05-08 02:23:00,
2013-05-07 19:24:00,75.6,55.2,29.95,South,180,2.9,4.7,49,0.00,,,0.00,WUHU216HW,2013-05-08 02:24:00,
2013-05-07 19:25:00,74.7,54.3,29.96,South,180,3.1,4.7,49,0.00,,,0.00,WUHU216HW,2013-05-08 02:25:00,
2013-05-07 19:28:00,73.6,54.8,29.96,SSW,203,2.5,4.7,52,0.00,,,0.00,WUHU216HW,2013-05-08 02:28:00,
2013-05-07 19:29:00,73.6,54.8,29.96,SSW,203,2.5,4.7,52,0.00,,,0.00,WUHU216HW,2013-05-08 02:29:00,
2013-05-07 19:30:00,72.5,53.8,29.96,West,270,1.1,4.7,52,0.00,,,0.00,WUHU216HW,2013-05-08 02:30:00,
2013-05-07 19:33:00,72.0,53.8,29.96,WNW,293,1.3,4.0,53,0.00,,,0.00,WUHU216HW,2013-05-08 02:33:00,
2013-05-07 19:34:00,72.0,53.8,29.96,WNW,293,1.3,4.0,53,0.00,,,0.00,WUHU216HW,2013-05-08 02:34:00,
2013-05-07 19:35:00,71.8,54.2,29.96,NNW,338,2.5,3.4,54,0.00,,,0.00,WUHU216HW,2013-05-08 02:35:00,
2013-05-07 19:38:00,71.5,54.4,29.96,NNW,338,3.6,4.5,55,0.00,,,0.00,WUHU216HW,2013-05-08 02:38:00,
2013-05-07 19:39:00,71.5,54.4,29.96,NNW,338,3.6,4.5,55,0.00,,,0.00,WUHU216HW,2013-05-08 02:39:00,
2013-05-07 19:40:00,71.1,54.5,29.96,North,0,4.0,4.5,56,0.00,,,0.00,WUHU216HW,2013-05-08 02:40:00,
2013-05-07 19:43:00,70.2,53.3,29.96,NW,315,4.0,4.5,55,0.00,,,0.00,WUHU216HW,2013-05-08 02:43:00,
2013-05-07 19:44:00,69.8,53.5,29.96,WNW,293,4.3,4.5,56,0.00,,,0.00,WUHU216HW,2013-05-08 02:44:00,
2013-05-07 19:45:00,69.5,54.1,29.96,NW,315,5.1,5.1,58,0.00,,,0.00,WUHU216HW,2013-05-08 02:45:00,
2013-05-07 19:48:00,68.6,53.7,29.96,NW,315,4.0,5.1,59,0.00,,,0.00,WUHU216HW,2013-05-08 02:48:00,
2013-05-07 19:49:00,68.4,53.6,29.96,NW,315,4.5,5.1,59,0.00,,,0.00,WUHU216HW,2013-05-08 02:49:00,
2013-05-07 19:50:00,68.0,53.6,29.96,NW,315,4.0,5.1,60,0.00,,,0.00,WUHU216HW,2013-05-08 02:50:00,
2013-05-07 19:53:00,67.9,53.5,29.96,NW,315,3.4,5.1,60,0.00,,,0.00,WUHU216HW,2013-05-08 02:53:00,
2013-05-07 19:54:00,67.7,53.7,29.96,NW,315,3.4,5.1,61,0.00,,,0.00,WUHU216HW,2013-05-08 02:54:00,
2013-05-07 19:55:00,67.7,53.7,29.96,NW,315,3.4,4.9,61,0.00,,,0.00,WUHU216HW,2013-05-08 02:55:00,
2013-05-07 19:56:00,67.5,53.6,29.96,NW,315,4.0,4.9,61,0.00,,,0.00,WUHU216HW,2013-05-08 02:56:00,
2013-05-07 19:59:00,67.3,53.5,29.96,NW,315,2.9,4.5,61,0.00,,,0.00,WUHU216HW,2013-05-08 02:59:00,
2013-05-07 20:00:00,67.3,53.5,29.96,NW,315,3.4,4.5,61,0.00,,,0.00,WUHU216HW,2013-05-08 03:00:00,
2013-05-07 20:01:00,67.3,53.8,29.96,NNW,338,2.5,4.5,62,0.00,,,0.00,WUHU216HW,2013-05-08 03:01:00,
2013-05-07 20:04:00,67.3,53.8,29.96,NNW,338,2.5,4.0,62,0.00,,,0.00,WUHU216HW,2013-05-08 03:04:00,
2013-05-07 20:05:00,67.3,53.0,29.96,NNW,338,1.3,4.0,60,0.00,,,0.00,WUHU216HW,2013-05-08 03:05:00,
2013-05-07 20:06:00,67.3,53.0,29.96,NNW,338,1.3,4.0,60,0.00,,,0.00,WUHU216HW,2013-05-08 03:06:00,
2013-05-07 20:07:00,67.3,53.0,29.96,NNW,338,1.3,4.0,60,0.00,,,0.00,WUHU216HW,2013-05-08 03:07:00,
2013-05-07 20:09:00,67.5,53.2,29.96,NNW,338,1.1,3.4,60,0.00,,,0.00,WUHU216HW,2013-05-08 03:09:00,
2013-05-07 20:10:00,67.5,53.2,29.96,NNW,338,1.1,2.5,60,0.00,,,0.00,WUHU216HW,2013-05-08 03:10:00,
2013-05-07 20:11:00,67.5,53.2,29.96,NNW,338,1.1,2.5,60,0.00,,,0.00,WUHU216HW,2013-05-08 03:11:00,
2013-05-07 20:12:00,67.5,53.2,29.96,NNW,338,1.1,2.5,60,0.00,,,0.00,WUHU216HW,2013-05-08 03:12:00,
2013-05-07 20:14:00,67.3,53.0,29.96,NW,315,1.6,1.6,60,0.00,,,0.00,WUHU216HW,2013-05-08 03:14:00,
2013-05-07 20:15:00,67.0,52.7,29.96,NW,315,1.1,1.6,60,0.00,,,0.00,WUHU216HW,2013-05-08 03:15:00,
2013-05-07 20:16:00,67.0,52.7,29.96,NW,315,1.1,1.6,60,0.00,,,0.00,WUHU216HW,2013-05-08 03:16:00,
2013-05-07 20:17:00,66.8,52.5,29.97,WNW,293,1.3,1.6,60,0.00,,,0.00,WUHU216HW,2013-05-08 03:17:00,
2013-05-07 20:19:00,66.4,52.2,29.96,NW,315,0.9,1.6,60,0.00,,,0.00,WUHU216HW,2013-05-08 03:19:00,
2013-05-07 20:20:00,66.4,52.2,29.97,NW,315,0.7,1.6,60,0.00,,,0.00,WUHU216HW,2013-05-08 03:20:00,
2013-05-07 20:21:00,66.2,52.5,29.97,NW,315,1.3,1.6,61,0.00,,,0.00,WUHU216HW,2013-05-08 03:21:00,
2013-05-07 20:22:00,66.1,52.3,29.96,NNW,338,0.2,1.6,61,0.00,,,0.00,WUHU216HW,2013-05-08 03:22:00,
2013-05-07 20:24:00,65.9,52.1,29.97,NNW,338,0.0,1.3,61,0.00,,,0.00,WUHU216HW,2013-05-08 03:24:00,
2013-05-07 20:25:00,65.9,52.1,29.97,NNW,338,0.0,1.3,61,0.00,,,0.00,WUHU216HW,2013-05-08 03:25:00,
2013-05-07 20:26:00,65.9,52.1,29.97,NNW,338,0.0,1.3,61,0.00,,,0.00,WUHU216HW,2013-05-08 03:26:00,
2013-05-07 20:27:00,65.9,52.1,29.97,NNW,338,0.0,1.3,61,0.00,,,0.00,WUHU216HW,2013-05-08 03:27:00,
2013-05-07 20:30:00,65.2,51.8,29.97,NNE,23,1.1,1.3,62,0.00,,,0.00,WUHU216HW,2013-05-08 03:30:00,
2013-05-07 20:31:00,65.0,52.0,29.97,NE,45,0.9,1.1,63,0.00,,,0.00,WUHU216HW,2013-05-08 03:31:00,
2013-05-07 20:32:00,65.0,52.0,29.97,NE,45,0.9,1.1,63,0.00,,,0.00,WUHU216HW,2013-05-08 03:32:00,
2013-05-07 20:35:00,64.6,52.6,29.97,SSW,203,1.1,1.1,65,0.00,,,0.00,WUHU216HW,2013-05-08 03:35:00,
2013-05-07 20:36:00,64.3,52.2,29.97,ESE,113,0.0,1.1,65,0.00,,,0.00,WUHU216HW,2013-05-08 03:36:00,
2013-05-07 20:37:00,64.1,51.6,29.97,NNE,23,0.0,1.1,64,0.00,,,0.00,WUHU216HW,2013-05-08 03:37:00,
2013-05-07 20:40:00,63.7,52.1,29.97,WSW,248,1.1,1.1,66,0.00,,,0.00,WUHU216HW,2013-05-08 03:40:00,
2013-05-07 20:41:00,63.7,52.1,29.97,WSW,248,1.1,1.1,66,0.00,,,0.00,WUHU216HW,2013-05-08 03:41:00,
2013-05-07 20:42:00,63.7,52.1,29.97,WSW,248,1.1,1.1,66,0.00,,,0.00,WUHU216HW,2013-05-08 03:42:00,
2013-05-07 20:43:00,63.4,51.8,29.97,NE,45,1.1,1.1,66,0.00,,,0.00,WUHU216HW,2013-05-08 03:43:00,
2013-05-07 20:46:00,63.4,51.8,29.97,NE,45,1.3,1.3,66,0.00,,,0.00,WUHU216HW,2013-05-08 03:46:00,
2013-05-07 20:47:00,63.2,52.5,29.98,NE,45,1.8,1.8,68,0.00,,,0.00,WUHU216HW,2013-05-08 03:47:00,
2013-05-07 20:48:00,63.0,52.3,29.98,East,90,1.8,1.8,68,0.00,,,0.00,WUHU216HW,2013-05-08 03:48:00,
2013-05-07 20:51:00,63.0,51.8,29.98,East,90,0.0,1.8,67,0.00,,,0.00,WUHU216HW,2013-05-08 03:51:00,
2013-05-07 20:52:00,62.8,51.7,29.98,NE,45,0.7,1.8,67,0.00,,,0.00,WUHU216HW,2013-05-08 03:52:00,
2013-05-07 20:53:00,62.6,51.5,29.98,North,0,0.0,1.8,67,0.00,,,0.00,WUHU216HW,2013-05-08 03:53:00,
2013-05-07 20:56:00,62.5,51.0,29.98,North,0,0.0,1.8,66,0.00,,,0.00,WUHU216HW,2013-05-08 03:56:00,
2013-05-07 20:57:00,62.3,51.2,29.98,North,0,0.0,1.8,67,0.00,,,0.00,WUHU216HW,2013-05-08 03:57:00,
2013-05-07 20:58:00,62.3,51.2,29.98,North,0,0.0,0.7,67,0.00,,,0.00,WUHU216HW,2013-05-08 03:58:00,
2013-05-07 21:01:00,61.9,51.3,29.98,ENE,68,1.1,1.1,68,0.00,,,0.00,WUHU216HW,2013-05-08 04:01:00,
2013-05-07 21:06:00,61.6,51.4,29.99,ENE,68,0.7,1.8,69,0.00,,,0.00,WUHU216HW,2013-05-08 04:06:00,
2013-05-07 21:11:00,61.4,51.2,29.99,NNE,23,1.1,1.8,69,0.00,,,0.00,WUHU216HW,2013-05-08 04:11:00,
2013-05-07 21:16:00,61.2,51.0,29.99,NE,45,0.0,1.8,69,0.00,,,0.00,WUHU216HW,2013-05-08 04:16:00,
2013-05-07 21:17:00,61.0,50.5,29.99,NE,45,0.0,1.8,68,0.00,,,0.00,WUHU216HW,2013-05-08 04:17:00,
2013-05-07 21:21:00,60.8,50.7,29.99,NE,45,0.7,1.8,69,0.00,,,0.00,WUHU216HW,2013-05-08 04:21:00,
2013-05-07 21:22:00,60.8,50.7,29.99,NE,45,0.7,1.1,69,0.00,,,0.00,WUHU216HW,2013-05-08 04:22:00,
2013-05-07 21:26:00,60.5,50.3,29.99,ENE,68,1.6,1.6,69,0.00,,,0.00,WUHU216HW,2013-05-08 04:26:00,
2013-05-07 21:27:00,60.3,50.9,29.99,East,90,1.6,1.6,71,0.00,,,0.00,WUHU216HW,2013-05-08 04:27:00,
2013-05-07 21:32:00,60.1,50.8,29.99,ENE,68,1.1,1.6,71,0.00,,,0.00,WUHU216HW,2013-05-08 04:32:00,
2013-05-07 21:33:00,60.1,50.8,29.99,ENE,68,1.1,1.6,71,0.00,,,0.00,WUHU216HW,2013-05-08 04:33:00,
2013-05-07 21:37:00,60.1,51.1,29.99,South,180,0.9,2.2,72,0.00,,,0.00,WUHU216HW,2013-05-08 04:37:00,
2013-05-07 21:38:00,60.1,51.1,29.99,South,180,0.9,2.2,72,0.00,,,0.00,WUHU216HW,2013-05-08 04:38:00,
2013-05-07 21:42:00,59.8,50.8,30.00,East,90,0.9,2.2,72,0.00,,,0.00,WUHU216HW,2013-05-08 04:42:00,
2013-05-07 21:43:00,59.8,50.8,30.00,East,90,0.9,2.2,72,0.00,,,0.00,WUHU216HW,2013-05-08 04:43:00,
2013-05-07 21:47:00,59.6,50.6,30.00,ESE,113,1.1,1.6,72,0.00,,,0.00,WUHU216HW,2013-05-08 04:47:00,
2013-05-07 21:48:00,59.6,50.6,30.00,ESE,113,1.1,1.6,72,0.00,,,0.00,WUHU216HW,2013-05-08 04:48:00,
2013-05-07 21:52:00,59.4,50.8,30.00,ESE,113,0.9,1.3,73,0.00,,,0.00,WUHU216HW,2013-05-08 04:52:00,
2013-05-07 21:53:00,59.4,50.8,30.00,ESE,113,0.7,1.3,73,0.00,,,0.00,WUHU216HW,2013-05-08 04:53:00,
2013-05-07 21:54:00,59.4,50.8,30.00,ESE,113,0.7,1.3,73,0.00,,,0.00,WUHU216HW,2013-05-08 04:54:00,
2013-05-07 21:58:00,59.2,50.2,30.00,ENE,68,1.3,1.3,72,0.00,,,0.00,WUHU216HW,2013-05-08 04:58:00,
2013-05-07 21:59:00,59.0,50.4,30.00,East,90,0.4,1.3,73,0.00,,,0.00,WUHU216HW,2013-05-08 04:59:00,
2013-05-07 22:03:00,58.9,50.2,30.00,ESE,113,1.1,1.3,73,0.00,,,0.00,WUHU216HW,2013-05-08 05:03:00,
2013-05-07 22:04:00,58.7,50.0,30.00,East,90,1.1,1.3,73,0.00,,,0.00,WUHU216HW,2013-05-08 05:04:00,
2013-05-07 22:08:00,58.7,50.0,30.00,East,90,0.9,1.3,73,0.00,,,0.00,WUHU216HW,2013-05-08 05:08:00,
2013-05-07 22:09:00,58.5,49.9,30.00,East,90,1.1,1.3,73,0.00,,,0.00,WUHU216HW,2013-05-08 05:09:00,
2013-05-07 22:13:00,58.3,50.0,30.00,ENE,68,0.9,1.1,74,0.00,,,0.00,WUHU216HW,2013-05-08 05:13:00,
2013-05-07 22:14:00,58.3,50.0,30.00,East,90,0.2,1.1,74,0.00,,,0.00,WUHU216HW,2013-05-08 05:14:00,
2013-05-07 22:18:00,58.1,49.9,30.00,ENE,68,1.1,1.1,74,0.00,,,0.00,WUHU216HW,2013-05-08 05:18:00,
2013-05-07 22:19:00,58.1,49.9,30.00,ENE,68,1.1,1.1,74,0.00,,,0.00,WUHU216HW,2013-05-08 05:19:00,
2013-05-07 22:24:00,58.0,50.0,30.01,ESE,113,1.1,2.0,75,0.00,,,0.00,WUHU216HW,2013-05-08 05:24:00,
2013-05-07 22:29:00,57.8,49.9,30.01,SSE,158,0.4,1.1,75,0.00,,,0.00,WUHU216HW,2013-05-08 05:29:00,
2013-05-07 22:30:00,57.8,49.9,30.01,ESE,113,0.7,1.1,75,0.00,,,0.00,WUHU216HW,2013-05-08 05:30:00,
2013-05-07 22:34:00,57.6,50.0,30.01,East,90,0.7,1.1,76,0.00,,,0.00,WUHU216HW,2013-05-08 05:34:00,
2013-05-07 22:35:00,57.6,50.0,30.01,East,90,0.7,1.1,76,0.00,,,0.00,WUHU216HW,2013-05-08 05:35:00,
2013-05-07 22:39:00,57.2,50.0,30.02,ESE,113,2.2,2.2,77,0.00,,,0.00,WUHU216HW,2013-05-08 05:39:00,
2013-05-07 22:40:00,57.2,50.0,30.02,ESE,113,2.2,2.2,77,0.00,,,0.00,WUHU216HW,2013-05-08 05:40:00,
2013-05-07 22:44:00,57.2,50.4,30.02,WSW,248,0.4,2.2,78,0.00,,,0.00,WUHU216HW,2013-05-08 05:44:00,
2013-05-07 22:45:00,57.2,50.4,30.02,WSW,248,0.4,2.2,78,0.00,,,0.00,WUHU216HW,2013-05-08 05:45:00,
2013-05-07 22:49:00,57.2,50.8,30.02,SSE,158,1.6,5.8,79,0.00,,,0.00,WUHU216HW,2013-05-08 05:49:00,
2013-05-07 22:50:00,57.2,50.8,30.02,SSE,158,1.6,5.8,79,0.00,,,0.00,WUHU216HW,2013-05-08 05:50:00,
2013-05-07 22:54:00,57.2,51.1,30.02,South,180,3.4,5.8,80,0.00,,,0.00,WUHU216HW,2013-05-08 05:54:00,
2013-05-07 22:55:00,57.2,51.1,30.02,South,180,3.4,5.8,80,0.00,,,0.00,WUHU216HW,2013-05-08 05:55:00,
2013-05-07 23:00:00,57.6,51.9,30.02,SSE,158,7.2,8.3,81,0.00,,,0.00,WUHU216HW,2013-05-08 06:00:00,
2013-05-07 23:01:00,57.6,51.9,30.02,South,180,5.4,8.3,81,0.00,,,0.00,WUHU216HW,2013-05-08 06:01:00,
2013-05-07 23:05:00,57.6,51.5,30.02,South,180,3.8,8.3,80,0.00,,,0.00,WUHU216HW,2013-05-08 06:05:00,
2013-05-07 23:06:00,57.6,51.5,30.02,SSW,203,3.4,8.3,80,0.00,,,0.00,WUHU216HW,2013-05-08 06:06:00,
2013-05-07 23:10:00,57.4,51.3,30.03,South,180,4.3,6.3,80,0.00,,,0.00,WUHU216HW,2013-05-08 06:10:00,
2013-05-07 23:11:00,57.4,51.3,30.03,South,180,4.3,6.3,80,0.00,,,0.00,WUHU216HW,2013-05-08 06:11:00,
2013-05-07 23:15:00,57.2,51.1,30.03,SW,225,2.7,6.5,80,0.00,,,0.00,WUHU216HW,2013-05-08 06:15:00,
2013-05-07 23:16:00,57.2,51.1,30.03,SW,225,2.7,6.5,80,0.00,,,0.00,WUHU216HW,2013-05-08 06:16:00,
2013-05-07 23:20:00,57.1,50.6,30.03,East,90,0.9,6.5,79,0.00,,,0.00,WUHU216HW,2013-05-08 06:20:00,
2013-05-07 23:21:00,57.1,50.6,30.03,East,90,0.9,6.5,79,0.00,,,0.00,WUHU216HW,2013-05-08 06:21:00,
2013-05-07 23:22:00,56.9,50.4,30.03,ESE,113,0.9,6.5,79,0.00,,,0.00,WUHU216HW,2013-05-08 06:22:00,
2013-05-07 23:26:00,56.7,50.2,30.03,East,90,0.9,3.8,79,0.00,,,0.00,WUHU216HW,2013-05-08 06:26:00,
2013-05-07 23:27:00,56.7,50.2,30.03,SE,135,1.1,1.6,79,0.00,,,0.00,WUHU216HW,2013-05-08 06:27:00,
2013-05-07 23:31:00,56.3,49.9,30.03,ENE,68,0.0,1.1,79,0.00,,,0.00,WUHU216HW,2013-05-08 06:31:00,
2013-05-07 23:32:00,56.2,50.0,30.03,East,90,1.1,1.1,80,0.00,,,0.00,WUHU216HW,2013-05-08 06:32:00,
2013-05-07 23:36:00,56.0,49.9,30.04,East,90,0.0,1.1,80,0.00,,,0.00,WUHU216HW,2013-05-08 06:36:00,
2013-05-07 23:37:00,55.8,49.7,30.03,ESE,113,0.7,1.1,80,0.00,,,0.00,WUHU216HW,2013-05-08 06:37:00,
2013-05-07 23:41:00,55.6,49.5,30.04,East,90,1.1,1.1,80,0.00,,,0.00,WUHU216HW,2013-05-08 06:41:00,
2013-05-07 23:42:00,55.4,49.0,30.04,ESE,113,1.6,1.6,79,0.00,,,0.00,WUHU216HW,2013-05-08 06:42:00,
2013-05-07 23:46:00,55.3,49.1,30.04,SE,135,1.1,3.4,80,0.00,,,0.00,WUHU216HW,2013-05-08 06:46:00,
2013-05-07 23:47:00,55.3,49.1,30.04,South,180,1.3,3.4,80,0.00,,,0.00,WUHU216HW,2013-05-08 06:47:00,
2013-05-07 23:51:00,55.3,49.5,30.04,SSE,158,0.4,3.4,81,0.00,,,0.00,WUHU216HW,2013-05-08 06:51:00,
2013-05-07 23:52:00,55.1,49.3,30.04,SSE,158,2.2,3.4,81,0.00,,,0.00,WUHU216HW,2013-05-08 06:52:00,
2013-05-07 23:56:00,55.1,49.3,30.04,SE,135,3.4,3.4,81,0.00,,,0.00,WUHU216HW,2013-05-08 06:56:00,
2013-05-07 23:57:00,55.1,49.3,30.04,SE,135,3.4,3.4,81,0.00,,,0.00,WUHU216HW,2013-05-08 06:57:00,
2013-05-07 23:58:00,55.1,49.3,30.04,SSE,158,1.8,3.4,81,0.00,,,0.00,WUHU216HW,2013-05-08 06:58:00,